C2010 KACV-KTVC

Flight info

Callsign C2010
Flight time 5h 4m
Altitude 27000
Route ULAMY MUO IDYID CUBKO SKIPR BARAK WUKTU
Aircraft C30J/M-SGHIRTUY/L

Departure

Time 2026-04-28 17:21
Airport California Redwood Coast-Humboldt County Airport (KACV)

Arrival

Time 2026-04-28 22:26
Airport Cherry Capital Airport (KTVC)
Time Latitude Longitude Altitude Speed Heading
2026-04-28 17:08 40.97419 -124.10797 221 ft 0 kts 153°
2026-04-28 17:15 40.97413 -124.10793 216 ft 2 kts 154°
2026-04-28 17:15 40.97402 -124.10795 217 ft 0 kts 217°
2026-04-28 17:15 40.97387 -124.10811 212 ft 8 kts 227°
2026-04-28 17:15 40.97382 -124.10837 212 ft 3 kts 274°
2026-04-28 17:16 40.97391 -124.10851 214 ft 6 kts 346°
2026-04-28 17:16 40.97416 -124.10850 215 ft 7 kts 355°
2026-04-28 17:16 40.97463 -124.10853 208 ft 10 kts 357°
2026-04-28 17:16 40.97499 -124.10854 211 ft 8 kts
2026-04-28 17:17 40.97565 -124.10853 211 ft 8 kts
2026-04-28 17:17 40.97622 -124.10851 209 ft 9 kts
2026-04-28 17:17 40.97703 -124.10874 216 ft 14 kts 334°
2026-04-28 17:17 40.97799 -124.10941 213 ft 15 kts 333°
2026-04-28 17:18 40.97894 -124.11003 208 ft 16 kts 335°
2026-04-28 17:18 40.97985 -124.11069 207 ft 14 kts 334°
2026-04-28 17:18 40.98062 -124.11119 201 ft 11 kts 333°
2026-04-28 17:18 40.98131 -124.11167 209 ft 12 kts 333°
2026-04-28 17:19 40.98214 -124.11222 201 ft 14 kts 333°
2026-04-28 17:19 40.98304 -124.11283 205 ft 15 kts 333°
2026-04-28 17:19 40.98399 -124.11343 195 ft 14 kts 341°
2026-04-28 17:19 40.98473 -124.11357 199 ft 8 kts
2026-04-28 17:20 40.98511 -124.11317 205 ft 6 kts 79°
2026-04-28 17:20 40.98503 -124.11296 190 ft 4 kts 138°
2026-04-28 17:20 40.98339 -124.11185 210 ft 75 kts 153°
2026-04-28 17:20 40.97618 -124.10699 237 ft 149 kts 153°
2026-04-28 17:21 40.96592 -124.10028 392 ft 172 kts 154°
2026-04-28 17:21 40.95493 -124.09303 774 ft 177 kts 152°
2026-04-28 17:21 40.94399 -124.08484 1362 ft 187 kts 150°
2026-04-28 17:22 40.92094 -124.06773 2441 ft 204 kts 150°
2026-04-28 17:22 40.90877 -124.05693 2949 ft 218 kts 131°
2026-04-28 17:22 40.90260 -124.03921 3470 ft 214 kts 92°
2026-04-28 17:23 40.91064 -124.00161 4485 ft 216 kts 66°
2026-04-28 17:23 40.91660 -123.98325 5002 ft 219 kts 66°
2026-04-28 17:23 40.92264 -123.96474 5502 ft 221 kts 66°
2026-04-28 17:23 40.92876 -123.94588 6028 ft 226 kts 66°
2026-04-28 17:24 40.93494 -123.92671 6536 ft 224 kts 67°
2026-04-28 17:24 40.94106 -123.90747 7029 ft 230 kts 67°
2026-04-28 17:24 40.94720 -123.88790 7523 ft 231 kts 67°
2026-04-28 17:24 40.95331 -123.86824 8023 ft 233 kts 67°
2026-04-28 17:25 40.95945 -123.84832 8539 ft 235 kts 67°
2026-04-28 17:25 40.97182 -123.80798 9579 ft 238 kts 67°
2026-04-28 17:25 40.97805 -123.78755 10114 ft 240 kts 67°
2026-04-28 17:26 40.98433 -123.76695 10587 ft 243 kts 67°
2026-04-28 17:26 40.99068 -123.74609 11077 ft 245 kts 67°
2026-04-28 17:26 40.99705 -123.72511 11574 ft 247 kts 67°
2026-04-28 17:26 41.00348 -123.70395 12082 ft 249 kts 66°
2026-04-28 17:27 41.00994 -123.68267 12596 ft 249 kts 66°
2026-04-28 17:27 41.01644 -123.66121 13122 ft 253 kts 66°
2026-04-28 17:27 41.02300 -123.63958 13651 ft 254 kts 66°
2026-04-28 17:27 41.02962 -123.61772 14170 ft 256 kts 66°
2026-04-28 17:28 41.03617 -123.59603 14647 ft 258 kts 66°
2026-04-28 17:28 41.04956 -123.55168 15628 ft 261 kts 65°
2026-04-28 17:28 41.05630 -123.52935 16111 ft 261 kts 65°
2026-04-28 17:29 41.06301 -123.50705 16629 ft 260 kts 65°
2026-04-28 17:29 41.06971 -123.48481 17154 ft 260 kts 65°
2026-04-28 17:29 41.07640 -123.46259 17668 ft 258 kts 65°
2026-04-28 17:30 41.08961 -123.41860 18711 ft 254 kts 64°
2026-04-28 17:30 41.10261 -123.37529 19657 ft 251 kts 64°
2026-04-28 17:30 41.10903 -123.35384 20138 ft 248 kts 63°
2026-04-28 17:31 41.11536 -123.33268 20622 ft 245 kts 63°
2026-04-28 17:31 41.12777 -123.29116 21611 ft 239 kts 62°
2026-04-28 17:32 41.13981 -123.25084 22633 ft 231 kts 61°
2026-04-28 17:32 41.14563 -123.23127 23165 ft 226 kts 61°
2026-04-28 17:32 41.15126 -123.21238 23693 ft 220 kts 60°
2026-04-28 17:32 41.15681 -123.19373 24164 ft 214 kts 60°
2026-04-28 17:33 41.16222 -123.17554 24602 ft 209 kts 59°
2026-04-28 17:33 41.16745 -123.15792 25065 ft 202 kts 59°
2026-04-28 17:33 41.17251 -123.14086 25508 ft 193 kts 58°
2026-04-28 17:33 41.17577 -123.12981 25823 ft 187 kts 58°
2026-04-28 17:34 41.18187 -123.10918 26440 ft 175 kts 57°
2026-04-28 17:34 41.18617 -123.09457 26852 ft 167 kts 56°
2026-04-28 17:34 41.19058 -123.07995 26960 ft 174 kts 56°
2026-04-28 17:34 41.19526 -123.06461 27019 ft 185 kts 57°
2026-04-28 17:35 41.20021 -123.04822 27029 ft 197 kts 58°
2026-04-28 17:35 41.20545 -123.03072 27040 ft 212 kts 58°
2026-04-28 17:35 41.21104 -123.01191 27017 ft 225 kts 59°
2026-04-28 17:35 41.21690 -122.99204 27028 ft 237 kts 59°
2026-04-28 17:36 41.22304 -122.97114 27020 ft 248 kts 60°
2026-04-28 17:36 41.22941 -122.94941 27009 ft 257 kts 60°
2026-04-28 17:36 41.23593 -122.92711 27133 ft 258 kts 60°
2026-04-28 17:36 41.24242 -122.90491 27261 ft 261 kts 60°
2026-04-28 17:37 41.24913 -122.88212 27233 ft 269 kts 60°
2026-04-28 17:37 41.25601 -122.85868 27231 ft 275 kts 60°
2026-04-28 17:37 41.26300 -122.83482 27229 ft 280 kts 60°
2026-04-28 17:37 41.27013 -122.81051 27225 ft 284 kts 61°
2026-04-28 17:38 41.27724 -122.78621 27239 ft 287 kts 61°
2026-04-28 17:38 41.28455 -122.76127 27226 ft 291 kts 61°
2026-04-28 17:38 41.29191 -122.73609 27224 ft 294 kts 61°
2026-04-28 17:38 41.29932 -122.71073 27238 ft 295 kts 61°
2026-04-28 17:39 41.30677 -122.68519 27234 ft 297 kts 61°
2026-04-28 17:39 41.31423 -122.65962 27210 ft 297 kts 61°
2026-04-28 17:39 41.32913 -122.60848 27229 ft 297 kts 61°
2026-04-28 17:40 41.33659 -122.58284 27225 ft 297 kts 61°
2026-04-28 17:40 41.34402 -122.55730 27221 ft 296 kts 61°
2026-04-28 17:40 41.35143 -122.53181 27234 ft 296 kts 61°
2026-04-28 17:40 41.35885 -122.50626 27235 ft 298 kts 61°
2026-04-28 17:41 41.36635 -122.48044 27229 ft 300 kts 61°
2026-04-28 17:41 41.37388 -122.45445 27219 ft 301 kts 61°
2026-04-28 17:41 41.38140 -122.42845 27232 ft 302 kts 61°
2026-04-28 17:41 41.38893 -122.40238 27231 ft 302 kts 61°
2026-04-28 17:42 41.39645 -122.37635 27225 ft 302 kts 61°
2026-04-28 17:42 41.40145 -122.35903 27220 ft 302 kts 61°
2026-04-28 17:42 41.41143 -122.32442 27234 ft 303 kts 61°
2026-04-28 17:42 41.41897 -122.29822 27224 ft 303 kts 61°
2026-04-28 17:43 41.42651 -122.27201 27215 ft 303 kts 61°
2026-04-28 17:43 41.43404 -122.24580 27223 ft 303 kts 61°
2026-04-28 17:43 41.44159 -122.21952 27222 ft 304 kts 61°
2026-04-28 17:43 41.44915 -122.19315 27214 ft 305 kts 61°
2026-04-28 17:44 41.45674 -122.16666 27219 ft 306 kts 61°
2026-04-28 17:44 41.46432 -122.14019 27211 ft 306 kts 61°
2026-04-28 17:44 41.47186 -122.11380 27216 ft 305 kts 61°
2026-04-28 17:44 41.47941 -122.08734 27213 ft 305 kts 61°
2026-04-28 17:45 41.48695 -122.06093 27217 ft 304 kts 61°
2026-04-28 17:45 41.49446 -122.03459 27219 ft 304 kts 61°
2026-04-28 17:45 41.50196 -122.00822 27219 ft 303 kts 61°
2026-04-28 17:45 41.50945 -121.98191 27209 ft 303 kts 61°
2026-04-28 17:46 41.51693 -121.95559 27220 ft 303 kts 61°
2026-04-28 17:46 41.52439 -121.92933 27218 ft 304 kts 61°
2026-04-28 17:46 41.53188 -121.90293 27206 ft 304 kts 61°
2026-04-28 17:46 41.53935 -121.87653 27211 ft 303 kts 61°
2026-04-28 17:47 41.54681 -121.85020 27213 ft 303 kts 61°
2026-04-28 17:47 41.55422 -121.82400 27216 ft 303 kts 61°
2026-04-28 17:47 41.56165 -121.79769 27208 ft 303 kts 61°
2026-04-28 17:47 41.56415 -121.78881 27211 ft 303 kts 61°
2026-04-28 17:48 41.57651 -121.74499 27210 ft 303 kts 61°
2026-04-28 17:48 41.58392 -121.71865 27213 ft 303 kts 61°
2026-04-28 17:48 41.59135 -121.69222 27208 ft 304 kts 61°
2026-04-28 17:48 41.59877 -121.66583 27208 ft 303 kts 61°
2026-04-28 17:49 41.60616 -121.63947 27209 ft 303 kts 61°
2026-04-28 17:49 41.61355 -121.61311 27207 ft 303 kts 61°
2026-04-28 17:49 41.62091 -121.58680 27210 ft 302 kts 61°
2026-04-28 17:49 41.62828 -121.56051 27216 ft 303 kts 61°
2026-04-28 17:50 41.63565 -121.53414 27206 ft 303 kts 62°
2026-04-28 17:50 41.64302 -121.50775 27206 ft 304 kts 62°
2026-04-28 17:50 41.65031 -121.48158 27207 ft 304 kts 62°
2026-04-28 17:50 41.65767 -121.45516 27227 ft 303 kts 61°
2026-04-28 17:51 41.66503 -121.42871 27209 ft 304 kts 61°
2026-04-28 17:51 41.67239 -121.40223 27202 ft 303 kts 61°
2026-04-28 17:51 41.67972 -121.37584 27199 ft 303 kts 61°
2026-04-28 17:51 41.68701 -121.34956 27207 ft 302 kts 61°
2026-04-28 17:52 41.69196 -121.33173 27199 ft 302 kts 61°
2026-04-28 17:52 41.69925 -121.30540 27202 ft 302 kts 61°
2026-04-28 17:52 41.71378 -121.25286 27204 ft 301 kts 61°
2026-04-28 17:53 41.72104 -121.22655 27199 ft 301 kts 61°
2026-04-28 17:53 41.72829 -121.20024 27198 ft 301 kts 61°
2026-04-28 17:53 41.73552 -121.17399 27197 ft 301 kts 61°
2026-04-28 17:53 41.74275 -121.14772 27210 ft 301 kts 61°
2026-04-28 17:54 41.74998 -121.12143 27192 ft 301 kts 61°
2026-04-28 17:54 41.75709 -121.09552 27198 ft 301 kts 61°
2026-04-28 17:54 41.76432 -121.06918 27196 ft 300 kts 61°
2026-04-28 17:54 41.77152 -121.04291 27198 ft 300 kts 61°
2026-04-28 17:55 41.77869 -121.01669 27200 ft 300 kts 61°
2026-04-28 17:55 41.78588 -120.99041 27192 ft 300 kts 61°
2026-04-28 17:55 41.79305 -120.96414 27196 ft 300 kts 61°
2026-04-28 17:55 41.80022 -120.93786 27197 ft 300 kts 61°
2026-04-28 17:56 41.80738 -120.91161 27204 ft 300 kts 61°
2026-04-28 17:56 41.81454 -120.88528 27206 ft 300 kts 61°
2026-04-28 17:56 41.82169 -120.85898 27219 ft 300 kts 61°
2026-04-28 17:56 41.82884 -120.83269 27220 ft 300 kts 61°
2026-04-28 17:57 41.83598 -120.80637 27199 ft 300 kts 61°
2026-04-28 17:57 41.84310 -120.78008 27206 ft 300 kts 61°
2026-04-28 17:57 41.85022 -120.75380 27205 ft 300 kts 61°
2026-04-28 17:57 41.85732 -120.72754 27211 ft 300 kts 61°
2026-04-28 17:58 41.86443 -120.70124 27211 ft 299 kts 61°
2026-04-28 17:58 41.87150 -120.67501 27212 ft 299 kts 61°
2026-04-28 17:58 41.87858 -120.64874 27213 ft 299 kts 61°
2026-04-28 17:58 41.88564 -120.62252 27230 ft 299 kts 61°
2026-04-28 17:59 41.89270 -120.59629 27219 ft 299 kts 61°
2026-04-28 17:59 41.89976 -120.57003 27221 ft 299 kts 61°
2026-04-28 17:59 41.90682 -120.54376 27235 ft 299 kts 62°
2026-04-28 17:59 41.91388 -120.51743 27228 ft 300 kts 62°
2026-04-28 18:00 41.92083 -120.49147 27223 ft 300 kts 62°
2026-04-28 18:00 41.92789 -120.46508 27228 ft 300 kts 62°
2026-04-28 18:00 41.93493 -120.43875 27230 ft 300 kts 62°
2026-04-28 18:00 41.94198 -120.41234 27230 ft 300 kts 62°
2026-04-28 18:01 41.94903 -120.38591 27231 ft 300 kts 62°
2026-04-28 18:01 41.95606 -120.35952 27230 ft 300 kts 62°
2026-04-28 18:01 41.96308 -120.33312 27230 ft 300 kts 62°
2026-04-28 18:01 41.97011 -120.30670 27230 ft 300 kts 62°
2026-04-28 18:02 41.97712 -120.28026 27236 ft 301 kts 62°
2026-04-28 18:02 41.98417 -120.25371 27244 ft 303 kts 62°
2026-04-28 18:02 41.99123 -120.22707 27219 ft 304 kts 63°
2026-04-28 18:02 41.99830 -120.20031 27226 ft 303 kts 63°
2026-04-28 18:03 42.00536 -120.17358 27227 ft 303 kts 63°
2026-04-28 18:03 42.01242 -120.14683 27226 ft 303 kts 63°
2026-04-28 18:03 42.01947 -120.12007 27235 ft 303 kts 62°
2026-04-28 18:03 42.02647 -120.09330 27222 ft 304 kts 64°
2026-04-28 18:04 42.03355 -120.06651 27217 ft 305 kts 64°
2026-04-28 18:04 42.04064 -120.03955 27220 ft 306 kts 64°
2026-04-28 18:04 42.04773 -120.01255 27217 ft 307 kts 64°
2026-04-28 18:04 42.05486 -119.98538 27213 ft 308 kts 64°
2026-04-28 18:05 42.06197 -119.95821 27214 ft 308 kts 64°
2026-04-28 18:05 42.06669 -119.94020 27225 ft 309 kts 65°
2026-04-28 18:05 42.07624 -119.90368 27210 ft 312 kts 65°
2026-04-28 18:05 42.08344 -119.87610 27208 ft 313 kts 65°
2026-04-28 18:06 42.09057 -119.84877 27206 ft 314 kts 65°
2026-04-28 18:06 42.09788 -119.82066 27206 ft 314 kts 65°
2026-04-28 18:06 42.10502 -119.79323 27207 ft 315 kts 65°
2026-04-28 18:06 42.11225 -119.76540 27209 ft 315 kts 65°
2026-04-28 18:07 42.11949 -119.73751 27203 ft 316 kts 65°
2026-04-28 18:07 42.12672 -119.70959 27205 ft 316 kts 65°
2026-04-28 18:07 42.13393 -119.68172 27206 ft 316 kts 65°
2026-04-28 18:07 42.14118 -119.65369 27205 ft 316 kts 65°
2026-04-28 18:08 42.14843 -119.62562 27199 ft 318 kts 66°
2026-04-28 18:08 42.15570 -119.59743 27196 ft 319 kts 66°
2026-04-28 18:08 42.16298 -119.56916 27196 ft 320 kts 66°
2026-04-28 18:08 42.17028 -119.54079 27199 ft 320 kts 66°
2026-04-28 18:09 42.17758 -119.51235 27188 ft 321 kts 66°
2026-04-28 18:09 42.18488 -119.48391 27188 ft 322 kts 66°
2026-04-28 18:09 42.19220 -119.45537 27188 ft 322 kts 66°
2026-04-28 18:09 42.19948 -119.42690 27188 ft 322 kts 66°
2026-04-28 18:10 42.20678 -119.39833 27185 ft 323 kts 66°
2026-04-28 18:10 42.21410 -119.36968 27182 ft 323 kts 66°
2026-04-28 18:10 42.22140 -119.34106 27192 ft 323 kts 66°
2026-04-28 18:10 42.22873 -119.31232 27183 ft 325 kts 68°
2026-04-28 18:11 42.23607 -119.28347 27182 ft 326 kts 68°
2026-04-28 18:11 42.24345 -119.25439 27187 ft 327 kts 68°
2026-04-28 18:11 42.25084 -119.22528 27187 ft 328 kts 68°
2026-04-28 18:11 42.25824 -119.19608 27186 ft 329 kts 68°
2026-04-28 18:12 42.26565 -119.16682 27186 ft 330 kts 68°
2026-04-28 18:12 42.27305 -119.13752 27183 ft 330 kts 68°
2026-04-28 18:12 42.28045 -119.10825 27183 ft 331 kts 68°
2026-04-28 18:12 42.28777 -119.07922 27186 ft 331 kts 68°
2026-04-28 18:13 42.29518 -119.04979 27183 ft 331 kts 68°
2026-04-28 18:13 42.30259 -119.02034 27183 ft 332 kts 69°
2026-04-28 18:13 42.31002 -118.99079 27182 ft 333 kts 69°
2026-04-28 18:13 42.31745 -118.96115 27176 ft 333 kts 69°
2026-04-28 18:14 42.32490 -118.93143 27179 ft 334 kts 69°
2026-04-28 18:14 42.33234 -118.90170 27186 ft 334 kts 69°
2026-04-28 18:14 42.33979 -118.87189 27175 ft 335 kts 70°
2026-04-28 18:14 42.34724 -118.84204 27174 ft 336 kts 70°
2026-04-28 18:15 42.35472 -118.81204 27171 ft 336 kts 70°
2026-04-28 18:15 42.36218 -118.78212 27178 ft 336 kts 70°
2026-04-28 18:15 42.36964 -118.75213 27178 ft 337 kts 70°
2026-04-28 18:15 42.37706 -118.72224 27166 ft 337 kts 70°
2026-04-28 18:16 42.38453 -118.69215 27174 ft 337 kts 70°
2026-04-28 18:16 42.39197 -118.66211 27177 ft 337 kts 70°
2026-04-28 18:16 42.39940 -118.63208 27160 ft 337 kts 70°
2026-04-28 18:16 42.40682 -118.60204 27164 ft 337 kts 70°
2026-04-28 18:17 42.41424 -118.57199 27167 ft 337 kts 70°
2026-04-28 18:17 42.42163 -118.54197 27166 ft 337 kts 70°
2026-04-28 18:17 42.42903 -118.51190 27151 ft 337 kts 70°
2026-04-28 18:17 42.43642 -118.48182 27154 ft 337 kts 70°
2026-04-28 18:18 42.44382 -118.45167 27156 ft 337 kts 70°
2026-04-28 18:18 42.45110 -118.42198 27151 ft 337 kts 70°
2026-04-28 18:18 42.45848 -118.39184 27150 ft 338 kts 71°
2026-04-28 18:18 42.46347 -118.37142 27147 ft 338 kts 71°
2026-04-28 18:19 42.47328 -118.33125 27150 ft 339 kts 71°
2026-04-28 18:19 42.48066 -118.30095 27151 ft 340 kts 71°
2026-04-28 18:19 42.48808 -118.27050 27147 ft 340 kts 71°
2026-04-28 18:19 42.49548 -118.24007 27149 ft 341 kts 71°
2026-04-28 18:20 42.50290 -118.20953 27144 ft 341 kts 71°
2026-04-28 18:20 42.51030 -118.17902 27150 ft 341 kts 71°
2026-04-28 18:20 42.51770 -118.14846 27144 ft 341 kts 71°
2026-04-28 18:20 42.52508 -118.11793 27178 ft 341 kts 71°
2026-04-28 18:21 42.53248 -118.08731 27183 ft 342 kts 71°
2026-04-28 18:21 42.53986 -118.05669 27189 ft 342 kts 72°
2026-04-28 18:21 42.54726 -118.02596 27189 ft 343 kts 72°
2026-04-28 18:21 42.55465 -117.99526 27198 ft 343 kts 72°
2026-04-28 18:22 42.56205 -117.96444 27197 ft 344 kts 72°
2026-04-28 18:22 42.56944 -117.93359 27195 ft 344 kts 72°
2026-04-28 18:22 42.57684 -117.90270 27198 ft 344 kts 72°
2026-04-28 18:22 42.58424 -117.87179 27191 ft 345 kts 72°
2026-04-28 18:23 42.59162 -117.84088 27196 ft 345 kts 72°
2026-04-28 18:23 42.59891 -117.81030 27195 ft 345 kts 72°
2026-04-28 18:23 42.60630 -117.77930 27199 ft 345 kts 72°
2026-04-28 18:23 42.61366 -117.74838 27195 ft 345 kts 72°
2026-04-28 18:24 42.62103 -117.71733 27191 ft 346 kts 72°
2026-04-28 18:24 42.62601 -117.69633 27190 ft 346 kts 72°
2026-04-28 18:24 42.63577 -117.65513 27176 ft 346 kts 72°
2026-04-28 18:24 42.64315 -117.62397 27180 ft 346 kts 72°
2026-04-28 18:25 42.65048 -117.59292 27174 ft 346 kts 72°
2026-04-28 18:25 42.65786 -117.56164 27175 ft 346 kts 72°
2026-04-28 18:25 42.66522 -117.53041 27170 ft 346 kts 72°
2026-04-28 18:26 42.67986 -117.46812 27164 ft 347 kts 72°
2026-04-28 18:26 42.68719 -117.43687 27157 ft 347 kts 72°
2026-04-28 18:26 42.69452 -117.40558 27164 ft 347 kts 72°
2026-04-28 18:26 42.70183 -117.37434 27164 ft 347 kts 72°
2026-04-28 18:27 42.70904 -117.34346 27164 ft 347 kts 72°
2026-04-28 18:27 42.71634 -117.31220 27164 ft 347 kts 72°
2026-04-28 18:27 42.72365 -117.28083 27159 ft 348 kts 72°
2026-04-28 18:27 42.73103 -117.24907 27157 ft 348 kts 72°
2026-04-28 18:28 42.73832 -117.21769 27159 ft 348 kts 72°
2026-04-28 18:28 42.74549 -117.18681 27159 ft 348 kts 72°
2026-04-28 18:28 42.75274 -117.15550 27159 ft 348 kts 72°
2026-04-28 18:28 42.76000 -117.12410 27157 ft 348 kts 72°
2026-04-28 18:29 42.76726 -117.09269 27156 ft 348 kts 72°
2026-04-28 18:29 42.77451 -117.06127 27155 ft 348 kts 72°
2026-04-28 18:29 42.78175 -117.02981 27155 ft 348 kts 72°
2026-04-28 18:29 42.78898 -116.99837 27136 ft 348 kts 72°
2026-04-28 18:30 42.79621 -116.96689 27139 ft 348 kts 72°
2026-04-28 18:30 42.79866 -116.95621 27144 ft 348 kts 72°
2026-04-28 18:30 42.81064 -116.90393 27144 ft 348 kts 72°
2026-04-28 18:30 42.81785 -116.87240 27132 ft 349 kts 72°
2026-04-28 18:31 42.82505 -116.84089 27132 ft 348 kts 72°
2026-04-28 18:31 42.83224 -116.80935 27138 ft 348 kts 72°
2026-04-28 18:31 42.83942 -116.77782 27133 ft 348 kts 72°
2026-04-28 18:31 42.84658 -116.74629 27124 ft 348 kts 72°
2026-04-28 18:32 42.85373 -116.71482 27126 ft 348 kts 72°
2026-04-28 18:32 42.86087 -116.68332 27129 ft 348 kts 72°
2026-04-28 18:32 42.86796 -116.65199 27125 ft 347 kts 72°
2026-04-28 18:32 42.87507 -116.62054 27114 ft 347 kts 72°
2026-04-28 18:33 42.88217 -116.58907 27117 ft 347 kts 72°
2026-04-28 18:33 42.88926 -116.55763 27120 ft 347 kts 72°
2026-04-28 18:33 42.89635 -116.52616 27111 ft 347 kts 72°
2026-04-28 18:33 42.90341 -116.49472 27119 ft 347 kts 72°
2026-04-28 18:34 42.91046 -116.46330 27119 ft 346 kts 72°
2026-04-28 18:34 42.91749 -116.43193 27122 ft 346 kts 72°
2026-04-28 18:34 42.92442 -116.40097 27116 ft 346 kts 72°
2026-04-28 18:34 42.93141 -116.36969 27115 ft 345 kts 72°
2026-04-28 18:35 42.93840 -116.33836 27122 ft 345 kts 72°
2026-04-28 18:35 42.94540 -116.30695 27120 ft 345 kts 72°
2026-04-28 18:35 42.95237 -116.27561 27113 ft 345 kts 72°
2026-04-28 18:35 42.95933 -116.24430 27142 ft 345 kts 72°
2026-04-28 18:36 42.96628 -116.21295 27157 ft 345 kts 72°
2026-04-28 18:36 42.97322 -116.18163 27164 ft 345 kts 72°
2026-04-28 18:36 42.98016 -116.15023 27177 ft 345 kts 72°
2026-04-28 18:36 42.98709 -116.11890 27174 ft 345 kts 72°
2026-04-28 18:37 42.99398 -116.08764 27178 ft 345 kts 72°
2026-04-28 18:37 43.00088 -116.05630 27195 ft 344 kts 72°
2026-04-28 18:37 43.00545 -116.03552 27194 ft 345 kts 72°
2026-04-28 18:37 43.01466 -115.99359 27206 ft 344 kts 72°
2026-04-28 18:38 43.02147 -115.96256 27208 ft 344 kts 72°
2026-04-28 18:38 43.02833 -115.93122 27207 ft 344 kts 72°
2026-04-28 18:38 43.03519 -115.89985 27202 ft 344 kts 72°
2026-04-28 18:38 43.03924 -115.87889 27206 ft 345 kts 76°
2026-04-28 18:39 43.04395 -115.84690 27203 ft 345 kts 77°
2026-04-28 18:39 43.04938 -115.81498 27185 ft 344 kts 75°
2026-04-28 18:39 43.05536 -115.78345 27209 ft 344 kts 74°
2026-04-28 18:39 43.06164 -115.75181 27207 ft 345 kts 73°
2026-04-28 18:40 43.06804 -115.72011 27200 ft 346 kts 73°
2026-04-28 18:40 43.07449 -115.68841 27191 ft 346 kts 73°
2026-04-28 18:40 43.08096 -115.65667 27184 ft 347 kts 73°
2026-04-28 18:40 43.08743 -115.62494 27178 ft 347 kts 73°
2026-04-28 18:41 43.09391 -115.59310 27171 ft 347 kts 73°
2026-04-28 18:41 43.10037 -115.56125 27162 ft 347 kts 73°
2026-04-28 18:41 43.10681 -115.52948 27155 ft 348 kts 73°
2026-04-28 18:41 43.11327 -115.49753 27148 ft 348 kts 73°
2026-04-28 18:42 43.11971 -115.46564 27142 ft 348 kts 73°
2026-04-28 18:42 43.12614 -115.43368 27131 ft 348 kts 73°
2026-04-28 18:42 43.13255 -115.40171 27126 ft 348 kts 74°
2026-04-28 18:42 43.13896 -115.36973 27121 ft 349 kts 73°
2026-04-28 18:43 43.14527 -115.33817 27127 ft 349 kts 74°
2026-04-28 18:43 43.15167 -115.30613 27119 ft 349 kts 74°
2026-04-28 18:43 43.15805 -115.27404 27120 ft 349 kts 74°
2026-04-28 18:43 43.16442 -115.24198 27120 ft 349 kts 74°
2026-04-28 18:44 43.17078 -115.20990 27116 ft 349 kts 74°
2026-04-28 18:44 43.18346 -115.14567 27116 ft 350 kts 73°
2026-04-28 18:44 43.18980 -115.11350 27118 ft 349 kts 73°
2026-04-28 18:45 43.19612 -115.08132 27116 ft 350 kts 73°
2026-04-28 18:45 43.20243 -115.04918 27120 ft 350 kts 73°
2026-04-28 18:45 43.20871 -115.01706 27123 ft 350 kts 73°
2026-04-28 18:45 43.21500 -114.98485 27123 ft 350 kts 73°
2026-04-28 18:46 43.22125 -114.95274 27126 ft 350 kts 73°
2026-04-28 18:46 43.22753 -114.92049 27127 ft 350 kts 73°
2026-04-28 18:46 43.23371 -114.88864 27124 ft 350 kts 73°
2026-04-28 18:46 43.24004 -114.85596 27124 ft 350 kts 73°
2026-04-28 18:47 43.24621 -114.82407 27130 ft 350 kts 73°
2026-04-28 18:47 43.25244 -114.79177 27124 ft 351 kts 73°
2026-04-28 18:47 43.25868 -114.75939 27118 ft 351 kts 73°
2026-04-28 18:47 43.26489 -114.72707 27113 ft 351 kts 73°
2026-04-28 18:48 43.27109 -114.69476 27107 ft 351 kts 73°
2026-04-28 18:48 43.27729 -114.66237 27108 ft 351 kts 73°
2026-04-28 18:48 43.28347 -114.63003 27110 ft 351 kts 73°
2026-04-28 18:48 43.28965 -114.59767 27109 ft 351 kts 73°
2026-04-28 18:49 43.29582 -114.56524 27108 ft 351 kts 73°
2026-04-28 18:49 43.29989 -114.54381 27108 ft 350 kts 73°
2026-04-28 18:49 43.30811 -114.50051 27140 ft 350 kts 73°
2026-04-28 18:49 43.31425 -114.46809 27128 ft 351 kts 73°
2026-04-28 18:50 43.32038 -114.43566 27124 ft 351 kts 73°
2026-04-28 18:50 43.32648 -114.40327 27125 ft 351 kts 73°
2026-04-28 18:50 43.33259 -114.37082 27179 ft 351 kts 73°
2026-04-28 18:50 43.33862 -114.33875 27183 ft 351 kts 73°
2026-04-28 18:51 43.34478 -114.30587 27186 ft 351 kts 73°
2026-04-28 18:51 43.35078 -114.27384 27186 ft 351 kts 73°
2026-04-28 18:51 43.35684 -114.24143 27188 ft 351 kts 73°
2026-04-28 18:51 43.36289 -114.20897 27183 ft 351 kts 73°
2026-04-28 18:52 43.36894 -114.17650 27185 ft 351 kts 73°
2026-04-28 18:52 43.37496 -114.14409 27189 ft 351 kts 73°
2026-04-28 18:52 43.38098 -114.11162 27172 ft 351 kts 73°
2026-04-28 18:52 43.38700 -114.07907 27179 ft 351 kts 73°
2026-04-28 18:53 43.39300 -114.04656 27171 ft 351 kts 73°
2026-04-28 18:53 43.39899 -114.01407 27163 ft 350 kts 73°
2026-04-28 18:53 43.40498 -113.98156 27164 ft 350 kts 73°
2026-04-28 18:53 43.41095 -113.94908 27146 ft 351 kts 73°
2026-04-28 18:54 43.41691 -113.91657 27148 ft 350 kts 73°
2026-04-28 18:54 43.42286 -113.88408 27141 ft 350 kts 73°
2026-04-28 18:54 43.42877 -113.85172 27134 ft 350 kts 73°
2026-04-28 18:54 43.43462 -113.81967 27145 ft 350 kts 73°
2026-04-28 18:55 43.44054 -113.78716 27136 ft 350 kts 73°
2026-04-28 18:55 43.44455 -113.76516 27135 ft 350 kts 73°
2026-04-28 18:55 43.45237 -113.72206 27125 ft 351 kts 73°
2026-04-28 18:55 43.45826 -113.68952 27130 ft 350 kts 73°
2026-04-28 18:56 43.46413 -113.65703 27127 ft 350 kts 73°
2026-04-28 18:56 43.47000 -113.62448 27125 ft 350 kts 73°
2026-04-28 18:56 43.47583 -113.59213 27122 ft 350 kts 73°
2026-04-28 18:56 43.48167 -113.55965 27127 ft 350 kts 73°
2026-04-28 18:57 43.48750 -113.52715 27130 ft 349 kts 73°
2026-04-28 18:57 43.49332 -113.49465 27130 ft 349 kts 73°
2026-04-28 18:57 43.49913 -113.46218 27132 ft 350 kts 73°
2026-04-28 18:57 43.50494 -113.42963 27128 ft 349 kts 73°
2026-04-28 18:58 43.51072 -113.39717 27130 ft 349 kts 73°
2026-04-28 18:58 43.51650 -113.36466 27130 ft 349 kts 73°
2026-04-28 18:58 43.52226 -113.33220 27129 ft 349 kts 73°
2026-04-28 18:58 43.52802 -113.29967 27131 ft 349 kts 73°
2026-04-28 18:59 43.53378 -113.26713 27134 ft 349 kts 73°
2026-04-28 18:59 43.53951 -113.23466 27135 ft 349 kts 73°
2026-04-28 18:59 43.54524 -113.20214 27137 ft 349 kts 73°
2026-04-28 18:59 43.55096 -113.16959 27137 ft 349 kts 73°
2026-04-28 19:00 43.55658 -113.13759 27155 ft 349 kts 73°
2026-04-28 19:00 43.56227 -113.10510 27148 ft 349 kts 73°
2026-04-28 19:00 43.56795 -113.07258 27148 ft 349 kts 74°
2026-04-28 19:00 43.57364 -113.04002 27146 ft 349 kts 74°
2026-04-28 19:01 43.57930 -113.00749 27148 ft 349 kts 74°
2026-04-28 19:01 43.58495 -112.97503 27156 ft 349 kts 74°
2026-04-28 19:01 43.59060 -112.94246 27153 ft 349 kts 74°
2026-04-28 19:01 43.59626 -112.90987 27155 ft 349 kts 74°
2026-04-28 19:02 43.60189 -112.87730 27156 ft 349 kts 74°
2026-04-28 19:02 43.60751 -112.84474 27164 ft 349 kts 74°
2026-04-28 19:02 43.61313 -112.81212 27164 ft 349 kts 74°
2026-04-28 19:02 43.61874 -112.77951 27175 ft 350 kts 74°
2026-04-28 19:03 43.62435 -112.74681 27164 ft 350 kts 74°
2026-04-28 19:03 43.62996 -112.71408 27170 ft 350 kts 74°
2026-04-28 19:03 43.63556 -112.68140 27172 ft 350 kts 74°
2026-04-28 19:03 43.64115 -112.64867 27174 ft 350 kts 74°
2026-04-28 19:04 43.64672 -112.61596 27170 ft 350 kts 74°
2026-04-28 19:04 43.65229 -112.58319 27176 ft 350 kts 74°
2026-04-28 19:04 43.65786 -112.55040 27179 ft 350 kts 74°
2026-04-28 19:04 43.66341 -112.51762 27177 ft 351 kts 74°
2026-04-28 19:05 43.66895 -112.48486 27173 ft 350 kts 74°
2026-04-28 19:05 43.67449 -112.45207 27178 ft 351 kts 74°
2026-04-28 19:05 43.68003 -112.41922 27173 ft 351 kts 74°
2026-04-28 19:05 43.68555 -112.38639 27175 ft 351 kts 74°
2026-04-28 19:06 43.69106 -112.35356 27176 ft 351 kts 74°
2026-04-28 19:06 43.69470 -112.33184 27178 ft 351 kts 74°
2026-04-28 19:06 43.70206 -112.28786 27175 ft 351 kts 74°
2026-04-28 19:06 43.70755 -112.25496 27173 ft 351 kts 74°
2026-04-28 19:07 43.71301 -112.22218 27168 ft 351 kts 74°
2026-04-28 19:07 43.71846 -112.18936 27169 ft 351 kts 74°
2026-04-28 19:07 43.72390 -112.15659 27177 ft 351 kts 74°
2026-04-28 19:07 43.72935 -112.12374 27182 ft 351 kts 74°
2026-04-28 19:08 43.73471 -112.09129 27183 ft 351 kts 74°
2026-04-28 19:08 43.74021 -112.05795 27175 ft 351 kts 74°
2026-04-28 19:08 43.74563 -112.02505 27182 ft 351 kts 74°
2026-04-28 19:08 43.75103 -111.99217 27182 ft 351 kts 75°
2026-04-28 19:09 43.75643 -111.95925 27187 ft 351 kts 74°
2026-04-28 19:09 43.76174 -111.92679 27189 ft 351 kts 75°
2026-04-28 19:09 43.76712 -111.89392 27190 ft 351 kts 75°
2026-04-28 19:09 43.77248 -111.86102 27181 ft 351 kts 75°
2026-04-28 19:10 43.77785 -111.82807 27185 ft 351 kts 75°
2026-04-28 19:10 43.78320 -111.79511 27185 ft 351 kts 75°
2026-04-28 19:10 43.78854 -111.76217 27190 ft 351 kts 75°
2026-04-28 19:10 43.79389 -111.72914 27193 ft 351 kts 75°
2026-04-28 19:11 43.79921 -111.69617 27188 ft 351 kts 75°
2026-04-28 19:11 43.80454 -111.66312 27186 ft 351 kts 75°
2026-04-28 19:11 43.80983 -111.63024 27189 ft 351 kts 75°
2026-04-28 19:11 43.81513 -111.59722 27189 ft 351 kts 75°
2026-04-28 19:12 43.82043 -111.56415 27182 ft 352 kts 75°
2026-04-28 19:12 43.82572 -111.53108 27187 ft 352 kts 75°
2026-04-28 19:12 43.83099 -111.49802 27188 ft 352 kts 75°
2026-04-28 19:12 43.83627 -111.46486 27196 ft 352 kts 75°
2026-04-28 19:13 43.84153 -111.43179 27196 ft 352 kts 75°
2026-04-28 19:13 43.84678 -111.39871 27214 ft 352 kts 75°
2026-04-28 19:13 43.85203 -111.36552 27205 ft 353 kts 75°
2026-04-28 19:13 43.85726 -111.33243 27201 ft 353 kts 75°
2026-04-28 19:14 43.86249 -111.29925 27204 ft 353 kts 75°
2026-04-28 19:14 43.86772 -111.26602 27207 ft 352 kts 75°
2026-04-28 19:14 43.87293 -111.23284 27210 ft 352 kts 75°
2026-04-28 19:14 43.87812 -111.19971 27211 ft 352 kts 75°
2026-04-28 19:15 43.88330 -111.16656 27210 ft 352 kts 75°
2026-04-28 19:15 43.88847 -111.13347 27213 ft 352 kts 75°
2026-04-28 19:15 43.89363 -111.10029 27212 ft 352 kts 75°
2026-04-28 19:15 43.89705 -111.07834 27213 ft 352 kts 75°
2026-04-28 19:16 43.90388 -111.03433 27218 ft 352 kts 75°
2026-04-28 19:16 43.90902 -111.00110 27211 ft 353 kts 75°
2026-04-28 19:16 43.91416 -110.96785 27211 ft 353 kts 75°
2026-04-28 19:16 43.91929 -110.93457 27214 ft 353 kts 75°
2026-04-28 19:17 43.92442 -110.90125 27212 ft 353 kts 75°
2026-04-28 19:17 43.92954 -110.86790 27214 ft 354 kts 75°
2026-04-28 19:17 43.93466 -110.83446 27198 ft 354 kts 75°
2026-04-28 19:17 43.93970 -110.80152 27206 ft 354 kts 75°
2026-04-28 19:18 43.94475 -110.76836 27209 ft 354 kts 75°
2026-04-28 19:18 43.94983 -110.73503 27198 ft 353 kts 75°
2026-04-28 19:18 43.95489 -110.70174 27225 ft 352 kts 75°
2026-04-28 19:18 43.95993 -110.66846 27213 ft 352 kts 75°
2026-04-28 19:19 43.96496 -110.63520 27209 ft 352 kts 75°
2026-04-28 19:19 43.96999 -110.60188 27213 ft 352 kts 75°
2026-04-28 19:19 43.97501 -110.56857 27206 ft 352 kts 75°
2026-04-28 19:19 43.98001 -110.53528 27215 ft 352 kts 75°
2026-04-28 19:20 43.98501 -110.50197 27209 ft 353 kts 75°
2026-04-28 19:20 43.99000 -110.46862 27209 ft 352 kts 75°
2026-04-28 19:20 43.99497 -110.43535 27217 ft 352 kts 75°
2026-04-28 19:20 43.99995 -110.40197 27212 ft 352 kts 75°
2026-04-28 19:21 44.00491 -110.36864 27212 ft 352 kts 75°
2026-04-28 19:21 44.00985 -110.33531 27229 ft 353 kts 75°
2026-04-28 19:21 44.01480 -110.30193 27208 ft 353 kts 75°
2026-04-28 19:21 44.01974 -110.26851 27207 ft 353 kts 75°
2026-04-28 19:22 44.02465 -110.23514 27209 ft 353 kts 75°
2026-04-28 19:22 44.02625 -110.22432 27210 ft 352 kts 75°
2026-04-28 19:22 44.03445 -110.16850 27219 ft 352 kts 75°
2026-04-28 19:22 44.03934 -110.13517 27224 ft 352 kts 75°
2026-04-28 19:23 44.04422 -110.10177 27222 ft 353 kts 75°
2026-04-28 19:23 44.04910 -110.06832 27213 ft 353 kts 75°
2026-04-28 19:23 44.05396 -110.03492 27212 ft 353 kts 75°
2026-04-28 19:23 44.05877 -110.00178 27212 ft 353 kts 75°
2026-04-28 19:24 44.06362 -109.96830 27220 ft 354 kts 75°
2026-04-28 19:24 44.06846 -109.93480 27223 ft 353 kts 75°
2026-04-28 19:24 44.07327 -109.90145 27211 ft 353 kts 75°
2026-04-28 19:24 44.07810 -109.86795 27207 ft 353 kts 75°
2026-04-28 19:25 44.08285 -109.83492 27204 ft 353 kts 75°
2026-04-28 19:25 44.08765 -109.80139 27208 ft 354 kts 75°
2026-04-28 19:25 44.09247 -109.76770 27190 ft 354 kts 75°
2026-04-28 19:25 44.09726 -109.73411 27199 ft 354 kts 75°
2026-04-28 19:26 44.10205 -109.70048 27203 ft 355 kts 75°
2026-04-28 19:26 44.10682 -109.66688 27196 ft 355 kts 75°
2026-04-28 19:26 44.11160 -109.63317 27183 ft 354 kts 75°
2026-04-28 19:26 44.11474 -109.61095 27195 ft 355 kts 75°
2026-04-28 19:27 44.11952 -109.57712 27165 ft 356 kts 75°
2026-04-28 19:27 44.12428 -109.54330 27173 ft 356 kts 75°
2026-04-28 19:27 44.12904 -109.50944 27175 ft 356 kts 75°
2026-04-28 19:27 44.13377 -109.47567 27155 ft 356 kts 75°
2026-04-28 19:28 44.13851 -109.44183 27151 ft 355 kts 75°
2026-04-28 19:28 44.14322 -109.40800 27161 ft 355 kts 76°
2026-04-28 19:28 44.14790 -109.37442 27149 ft 355 kts 76°
2026-04-28 19:28 44.15258 -109.34073 27133 ft 354 kts 76°
2026-04-28 19:29 44.15724 -109.30715 27135 ft 354 kts 76°
2026-04-28 19:29 44.16033 -109.28483 27153 ft 353 kts 76°
2026-04-28 19:29 44.16654 -109.23980 27138 ft 354 kts 76°
2026-04-28 19:29 44.17118 -109.20613 27132 ft 354 kts 76°
2026-04-28 19:30 44.17579 -109.17252 27129 ft 353 kts 76°
2026-04-28 19:30 44.18040 -109.13891 27135 ft 353 kts 76°
2026-04-28 19:30 44.18497 -109.10544 27134 ft 353 kts 76°
2026-04-28 19:30 44.18956 -109.07182 27133 ft 353 kts 76°
2026-04-28 19:31 44.19413 -109.03821 27131 ft 353 kts 76°
2026-04-28 19:31 44.19870 -109.00458 27132 ft 353 kts 76°
2026-04-28 19:31 44.20320 -108.97138 27130 ft 353 kts 76°
2026-04-28 19:31 44.20773 -108.93782 27131 ft 353 kts 76°
2026-04-28 19:32 44.21227 -108.90417 27142 ft 353 kts 76°
2026-04-28 19:32 44.21680 -108.87046 27127 ft 354 kts 76°
2026-04-28 19:32 44.22131 -108.83683 27118 ft 355 kts 76°
2026-04-28 19:32 44.22584 -108.80302 27126 ft 355 kts 76°
2026-04-28 19:33 44.23035 -108.76919 27124 ft 355 kts 76°
2026-04-28 19:33 44.23487 -108.73529 27121 ft 355 kts 76°
2026-04-28 19:33 44.23936 -108.70146 27130 ft 355 kts 76°
2026-04-28 19:33 44.24385 -108.66758 27126 ft 355 kts 76°
2026-04-28 19:34 44.24833 -108.63374 27126 ft 355 kts 76°
2026-04-28 19:34 44.25280 -108.59985 27126 ft 355 kts 76°
2026-04-28 19:34 44.25726 -108.56592 27125 ft 355 kts 76°
2026-04-28 19:34 44.26169 -108.53217 27133 ft 355 kts 76°
2026-04-28 19:35 44.26612 -108.49837 27129 ft 355 kts 76°
2026-04-28 19:35 44.27054 -108.46448 27130 ft 355 kts 76°
2026-04-28 19:35 44.27495 -108.43062 27127 ft 355 kts 76°
2026-04-28 19:35 44.27936 -108.39678 27130 ft 355 kts 76°
2026-04-28 19:36 44.28375 -108.36285 27132 ft 355 kts 76°
2026-04-28 19:36 44.28813 -108.32900 27120 ft 355 kts 76°
2026-04-28 19:36 44.29251 -108.29509 27127 ft 355 kts 76°
2026-04-28 19:36 44.29686 -108.26126 27110 ft 355 kts 76°
2026-04-28 19:37 44.30122 -108.22731 27106 ft 355 kts 76°
2026-04-28 19:37 44.30410 -108.20486 27110 ft 355 kts 76°
2026-04-28 19:37 44.30991 -108.15943 27105 ft 356 kts 77°
2026-04-28 19:37 44.31426 -108.12533 27101 ft 356 kts 77°
2026-04-28 19:38 44.31858 -108.09129 27104 ft 357 kts 77°
2026-04-28 19:38 44.32291 -108.05714 27102 ft 357 kts 77°
2026-04-28 19:38 44.32716 -108.02353 27101 ft 357 kts 77°
2026-04-28 19:38 44.33147 -107.98935 27110 ft 357 kts 77°
2026-04-28 19:39 44.33575 -107.95536 27100 ft 357 kts 77°
2026-04-28 19:39 44.34005 -107.92113 27099 ft 358 kts 77°
2026-04-28 19:39 44.34433 -107.88694 27113 ft 358 kts 77°
2026-04-28 19:39 44.34861 -107.85270 27109 ft 358 kts 77°
2026-04-28 19:40 44.35287 -107.81847 27119 ft 358 kts 77°
2026-04-28 19:40 44.35714 -107.78417 27118 ft 358 kts 77°
2026-04-28 19:40 44.36138 -107.74989 27134 ft 358 kts 77°
2026-04-28 19:40 44.36563 -107.71556 27135 ft 359 kts 77°
2026-04-28 19:41 44.36985 -107.68132 27134 ft 359 kts 77°
2026-04-28 19:41 44.37407 -107.64693 27129 ft 359 kts 77°
2026-04-28 19:41 44.37829 -107.61252 27153 ft 359 kts 77°
2026-04-28 19:41 44.38250 -107.57817 27154 ft 359 kts 77°
2026-04-28 19:42 44.38670 -107.54374 27150 ft 359 kts 77°
2026-04-28 19:42 44.39088 -107.50938 27152 ft 359 kts 77°
2026-04-28 19:42 44.39505 -107.47506 27154 ft 359 kts 77°
2026-04-28 19:42 44.39782 -107.45220 27179 ft 360 kts 77°
2026-04-28 19:43 44.40341 -107.40592 27165 ft 361 kts 77°
2026-04-28 19:43 44.40756 -107.37144 27163 ft 361 kts 77°
2026-04-28 19:43 44.41171 -107.33688 27170 ft 361 kts 77°
2026-04-28 19:43 44.41586 -107.30225 27166 ft 360 kts 77°
2026-04-28 19:44 44.41993 -107.26814 27168 ft 360 kts 77°
2026-04-28 19:44 44.42404 -107.23361 27168 ft 360 kts 77°
2026-04-28 19:44 44.42814 -107.19913 27172 ft 360 kts 77°
2026-04-28 19:44 44.43224 -107.16460 27168 ft 359 kts 77°
2026-04-28 19:45 44.43630 -107.13019 27161 ft 360 kts 77°
2026-04-28 19:45 44.44038 -107.09556 27170 ft 360 kts 77°
2026-04-28 19:45 44.44445 -107.06093 27149 ft 361 kts 77°
2026-04-28 19:45 44.44850 -107.02631 27137 ft 360 kts 77°
2026-04-28 19:46 44.45255 -106.99174 27126 ft 360 kts 77°
2026-04-28 19:46 44.45658 -106.95716 27133 ft 359 kts 77°
2026-04-28 19:46 44.46058 -106.92269 27130 ft 359 kts 77°
2026-04-28 19:46 44.46459 -106.88810 27117 ft 359 kts 77°
2026-04-28 19:47 44.46857 -106.85372 27098 ft 358 kts 77°
2026-04-28 19:47 44.47254 -106.81923 27097 ft 358 kts 77°
2026-04-28 19:47 44.47650 -106.78484 27096 ft 358 kts 77°
2026-04-28 19:47 44.48045 -106.75033 27094 ft 358 kts 77°
2026-04-28 19:48 44.48439 -106.71590 27103 ft 359 kts 77°
2026-04-28 19:48 44.48833 -106.68134 27092 ft 359 kts 77°
2026-04-28 19:48 44.49226 -106.64680 27099 ft 359 kts 77°
2026-04-28 19:48 44.49612 -106.61272 27099 ft 359 kts 78°
2026-04-28 19:49 44.50003 -106.57812 27097 ft 359 kts 77°
2026-04-28 19:49 44.50392 -106.54365 27101 ft 359 kts 78°
2026-04-28 19:49 44.50780 -106.50910 27101 ft 360 kts 78°
2026-04-28 19:49 44.51169 -106.47446 27101 ft 360 kts 77°
2026-04-28 19:50 44.51942 -106.40520 27110 ft 360 kts 78°
2026-04-28 19:50 44.52327 -106.37052 27137 ft 360 kts 78°
2026-04-28 19:50 44.52712 -106.33583 27115 ft 361 kts 78°
2026-04-28 19:51 44.53096 -106.30106 27117 ft 361 kts 78°
2026-04-28 19:51 44.53477 -106.26650 27124 ft 360 kts 78°
2026-04-28 19:51 44.53858 -106.23179 27123 ft 360 kts 78°
2026-04-28 19:51 44.54238 -106.19712 27125 ft 360 kts 78°
2026-04-28 19:52 44.54617 -106.16243 27123 ft 360 kts 78°
2026-04-28 19:52 44.54995 -106.12775 27121 ft 360 kts 78°
2026-04-28 19:52 44.55371 -106.09312 27123 ft 359 kts 78°
2026-04-28 19:52 44.55744 -106.05868 27127 ft 359 kts 78°
2026-04-28 19:53 44.56119 -106.02398 27123 ft 360 kts 78°
2026-04-28 19:53 44.56492 -105.98931 27137 ft 360 kts 78°
2026-04-28 19:53 44.56864 -105.95465 27119 ft 360 kts 78°
2026-04-28 19:53 44.57235 -105.91995 27128 ft 360 kts 78°
2026-04-28 19:54 44.57606 -105.88522 27129 ft 360 kts 78°
2026-04-28 19:54 44.57976 -105.85047 27115 ft 361 kts 78°
2026-04-28 19:54 44.58345 -105.81564 27122 ft 361 kts 78°
2026-04-28 19:54 44.58714 -105.78078 27124 ft 361 kts 78°
2026-04-28 19:55 44.59081 -105.74593 27104 ft 362 kts 78°
2026-04-28 19:55 44.59447 -105.71110 27118 ft 362 kts 78°
2026-04-28 19:55 44.59812 -105.67622 27115 ft 361 kts 78°
2026-04-28 19:55 44.60177 -105.64137 27117 ft 361 kts 78°
2026-04-28 19:56 44.60540 -105.60651 27122 ft 361 kts 78°
2026-04-28 19:56 44.60902 -105.57167 27118 ft 361 kts 78°
2026-04-28 19:56 44.61262 -105.53689 27119 ft 360 kts 78°
2026-04-28 19:56 44.61621 -105.50208 27117 ft 360 kts 78°
2026-04-28 19:57 44.61979 -105.46731 27119 ft 360 kts 78°
2026-04-28 19:57 44.62335 -105.43257 27112 ft 360 kts 78°
2026-04-28 19:57 44.62687 -105.39819 27114 ft 360 kts 78°
2026-04-28 19:57 44.63046 -105.36294 27121 ft 360 kts 78°
2026-04-28 19:58 44.63400 -105.32814 27107 ft 360 kts 78°
2026-04-28 19:58 44.63747 -105.29386 27116 ft 360 kts 78°
2026-04-28 19:58 44.64099 -105.25900 27145 ft 360 kts 78°
2026-04-28 19:58 44.64450 -105.22417 27125 ft 360 kts 78°
2026-04-28 19:59 44.64798 -105.18943 27114 ft 360 kts 78°
2026-04-28 19:59 44.65146 -105.15468 27119 ft 360 kts 78°
2026-04-28 19:59 44.65494 -105.11985 27119 ft 359 kts 78°
2026-04-28 19:59 44.65839 -105.08516 27121 ft 359 kts 78°
2026-04-28 20:00 44.66183 -105.05042 27121 ft 359 kts 78°
2026-04-28 20:00 44.66526 -105.01571 27119 ft 359 kts 78°
2026-04-28 20:00 44.66868 -104.98102 27125 ft 359 kts 78°
2026-04-28 20:00 44.67208 -104.94636 27121 ft 359 kts 78°
2026-04-28 20:01 44.67548 -104.91160 27118 ft 359 kts 78°
2026-04-28 20:01 44.67886 -104.87700 27119 ft 359 kts 79°
2026-04-28 20:01 44.68223 -104.84227 27114 ft 359 kts 79°
2026-04-28 20:01 44.68560 -104.80755 27118 ft 359 kts 79°
2026-04-28 20:02 44.68895 -104.77282 27118 ft 359 kts 79°
2026-04-28 20:02 44.69230 -104.73804 27116 ft 359 kts 79°
2026-04-28 20:02 44.69563 -104.70335 27112 ft 359 kts 79°
2026-04-28 20:02 44.69895 -104.66859 27116 ft 359 kts 79°
2026-04-28 20:03 44.70226 -104.63390 27111 ft 358 kts 79°
2026-04-28 20:03 44.70556 -104.59913 27112 ft 358 kts 79°
2026-04-28 20:03 44.70880 -104.56492 27118 ft 358 kts 79°
2026-04-28 20:03 44.71208 -104.53017 27117 ft 359 kts 79°
2026-04-28 20:04 44.71535 -104.49543 27119 ft 359 kts 79°
2026-04-28 20:04 44.71862 -104.46060 27109 ft 360 kts 79°
2026-04-28 20:04 44.72188 -104.42569 27114 ft 360 kts 79°
2026-04-28 20:04 44.72513 -104.39083 27112 ft 360 kts 79°
2026-04-28 20:05 44.72834 -104.35620 27104 ft 360 kts 79°
2026-04-28 20:05 44.73157 -104.32134 27113 ft 359 kts 79°
2026-04-28 20:05 44.73479 -104.28649 27112 ft 359 kts 79°
2026-04-28 20:05 44.73797 -104.25179 27114 ft 359 kts 79°
2026-04-28 20:06 44.74117 -104.21691 27110 ft 359 kts 79°
2026-04-28 20:06 44.74435 -104.18204 27112 ft 359 kts 79°
2026-04-28 20:06 44.74752 -104.14723 27139 ft 359 kts 79°
2026-04-28 20:06 44.75067 -104.11239 27119 ft 359 kts 79°
2026-04-28 20:07 44.75383 -104.07740 27109 ft 360 kts 79°
2026-04-28 20:07 44.75591 -104.05434 27110 ft 359 kts 79°
2026-04-28 20:07 44.76009 -104.00775 27112 ft 359 kts 79°
2026-04-28 20:07 44.76320 -103.97296 27112 ft 359 kts 79°
2026-04-28 20:08 44.76627 -103.93850 27111 ft 359 kts 79°
2026-04-28 20:08 44.76937 -103.90367 27115 ft 359 kts 79°
2026-04-28 20:08 44.77245 -103.86881 27117 ft 359 kts 79°
2026-04-28 20:08 44.77553 -103.83390 27115 ft 360 kts 79°
2026-04-28 20:09 44.77860 -103.79896 27113 ft 360 kts 80°
2026-04-28 20:09 44.78166 -103.76400 27128 ft 360 kts 80°
2026-04-28 20:09 44.78471 -103.72896 27114 ft 361 kts 80°
2026-04-28 20:09 44.78776 -103.69390 27116 ft 361 kts 80°
2026-04-28 20:10 44.79080 -103.65882 27117 ft 361 kts 80°
2026-04-28 20:10 44.79382 -103.62373 27118 ft 361 kts 80°
2026-04-28 20:10 44.79684 -103.58866 27118 ft 361 kts 80°
2026-04-28 20:10 44.79985 -103.55349 27121 ft 361 kts 80°
2026-04-28 20:11 44.80284 -103.51843 27120 ft 361 kts 80°
2026-04-28 20:11 44.80583 -103.48329 27116 ft 361 kts 80°
2026-04-28 20:11 44.80880 -103.44822 27121 ft 361 kts 80°
2026-04-28 20:11 44.81177 -103.41304 27115 ft 361 kts 80°
2026-04-28 20:12 44.81472 -103.37793 27126 ft 362 kts 81°
2026-04-28 20:12 44.81766 -103.34274 27120 ft 362 kts 81°
2026-04-28 20:12 44.82060 -103.30755 27122 ft 362 kts 81°
2026-04-28 20:12 44.82255 -103.28420 27127 ft 362 kts 81°
2026-04-28 20:13 44.82547 -103.24895 27130 ft 363 kts 81°
2026-04-28 20:13 44.82933 -103.20216 27127 ft 363 kts 81°
2026-04-28 20:13 44.83128 -103.17846 27129 ft 363 kts 81°
2026-04-28 20:13 44.83418 -103.14317 27130 ft 363 kts 81°
2026-04-28 20:14 44.83799 -103.09642 27135 ft 363 kts 81°
2026-04-28 20:14 44.83993 -103.07256 27135 ft 363 kts 81°
2026-04-28 20:14 44.84279 -103.03722 27137 ft 363 kts 81°
2026-04-28 20:14 44.84564 -103.00190 27143 ft 364 kts 82°
2026-04-28 20:15 44.84850 -102.96644 27141 ft 364 kts 82°
2026-04-28 20:15 44.85133 -102.93097 27140 ft 364 kts 82°
2026-04-28 20:15 44.85415 -102.89559 27140 ft 365 kts 82°
2026-04-28 20:15 44.85697 -102.86009 27150 ft 365 kts 82°
2026-04-28 20:16 44.85978 -102.82457 27147 ft 365 kts 82°
2026-04-28 20:16 44.86258 -102.78904 27148 ft 365 kts 82°
2026-04-28 20:16 44.86537 -102.75348 27145 ft 365 kts 82°
2026-04-28 20:16 44.86815 -102.71794 27154 ft 365 kts 82°
2026-04-28 20:17 44.87093 -102.68233 27137 ft 365 kts 83°
2026-04-28 20:17 44.87369 -102.64672 27160 ft 365 kts 83°
2026-04-28 20:17 44.87643 -102.61118 27152 ft 366 kts 84°
2026-04-28 20:17 44.87918 -102.57546 27150 ft 367 kts 84°
2026-04-28 20:18 44.88193 -102.53962 27153 ft 368 kts 84°
2026-04-28 20:18 44.88466 -102.50372 27153 ft 368 kts 84°
2026-04-28 20:18 44.88739 -102.46782 27154 ft 368 kts 84°
2026-04-28 20:18 44.89011 -102.43187 27156 ft 369 kts 84°
2026-04-28 20:19 44.89281 -102.39606 27167 ft 369 kts 84°
2026-04-28 20:19 44.89551 -102.36007 27164 ft 369 kts 84°
2026-04-28 20:19 44.89815 -102.32462 27164 ft 369 kts 84°
2026-04-28 20:19 44.90082 -102.28873 27163 ft 369 kts 84°
2026-04-28 20:20 44.90349 -102.25267 27170 ft 370 kts 84°
2026-04-28 20:20 44.90616 -102.21653 27169 ft 371 kts 85°
2026-04-28 20:20 44.90881 -102.18040 27169 ft 371 kts 85°
2026-04-28 20:20 44.91145 -102.14417 27167 ft 372 kts 85°
2026-04-28 20:21 44.91409 -102.10786 27176 ft 372 kts 85°
2026-04-28 20:21 44.91672 -102.07159 27176 ft 372 kts 85°
2026-04-28 20:21 44.91933 -102.03542 27173 ft 372 kts 85°
2026-04-28 20:21 44.92194 -101.99902 27171 ft 373 kts 85°
2026-04-28 20:22 44.92454 -101.96269 27171 ft 373 kts 85°
2026-04-28 20:22 44.92713 -101.92624 27172 ft 373 kts 85°
2026-04-28 20:22 44.92972 -101.88982 27166 ft 373 kts 85°
2026-04-28 20:22 44.93229 -101.85343 27170 ft 374 kts 85°
2026-04-28 20:23 44.93484 -101.81691 27176 ft 374 kts 85°
2026-04-28 20:23 44.93739 -101.78034 27177 ft 374 kts 85°
2026-04-28 20:23 44.93993 -101.74387 27177 ft 374 kts 85°
2026-04-28 20:23 44.94246 -101.70728 27175 ft 375 kts 85°
2026-04-28 20:24 44.94497 -101.67072 27176 ft 375 kts 85°
2026-04-28 20:24 44.94749 -101.63406 27178 ft 375 kts 86°
2026-04-28 20:24 44.94998 -101.59744 27179 ft 375 kts 86°
2026-04-28 20:24 44.95247 -101.56077 27177 ft 375 kts 86°
2026-04-28 20:25 44.95495 -101.52408 27177 ft 375 kts 86°
2026-04-28 20:25 44.95742 -101.48743 27176 ft 375 kts 86°
2026-04-28 20:25 44.95987 -101.45080 27177 ft 376 kts 86°
2026-04-28 20:25 44.96232 -101.41400 27178 ft 376 kts 86°
2026-04-28 20:26 44.96475 -101.37731 27178 ft 376 kts 86°
2026-04-28 20:26 44.96718 -101.34049 27177 ft 376 kts 86°
2026-04-28 20:26 44.96959 -101.30374 27175 ft 376 kts 86°
2026-04-28 20:26 44.97199 -101.26694 27179 ft 376 kts 86°
2026-04-28 20:27 44.97438 -101.23013 27175 ft 377 kts 86°
2026-04-28 20:27 44.97675 -101.19339 27176 ft 377 kts 86°
2026-04-28 20:27 44.97912 -101.15657 27175 ft 377 kts 86°
2026-04-28 20:27 44.98145 -101.12016 27176 ft 377 kts 86°
2026-04-28 20:28 44.98380 -101.08327 27173 ft 377 kts 86°
2026-04-28 20:28 44.98613 -101.04642 27169 ft 377 kts 86°
2026-04-28 20:28 44.98846 -101.00955 27167 ft 377 kts 86°
2026-04-28 20:28 44.99076 -100.97278 27174 ft 377 kts 86°
2026-04-28 20:29 44.99306 -100.93580 27166 ft 377 kts 86°
2026-04-28 20:29 44.99534 -100.89902 27174 ft 377 kts 86°
2026-04-28 20:29 44.99762 -100.86211 27171 ft 377 kts 87°
2026-04-28 20:29 44.99988 -100.82522 27175 ft 377 kts 87°
2026-04-28 20:30 45.00214 -100.78828 27168 ft 377 kts 87°
2026-04-28 20:30 45.00438 -100.75144 27165 ft 377 kts 87°
2026-04-28 20:30 45.00660 -100.71456 27162 ft 377 kts 87°
2026-04-28 20:30 45.00881 -100.67767 27172 ft 377 kts 87°
2026-04-28 20:31 45.01102 -100.64070 27174 ft 377 kts 87°
2026-04-28 20:31 45.01321 -100.60382 27165 ft 378 kts 87°
2026-04-28 20:31 45.01540 -100.56682 27163 ft 378 kts 87°
2026-04-28 20:31 45.01757 -100.52980 27161 ft 378 kts 88°
2026-04-28 20:32 45.01973 -100.49281 27165 ft 378 kts 88°
2026-04-28 20:32 45.02188 -100.45582 27161 ft 378 kts 88°
2026-04-28 20:32 45.02402 -100.41878 27162 ft 378 kts 88°
2026-04-28 20:32 45.02614 -100.38185 27162 ft 378 kts 88°
2026-04-28 20:33 45.02824 -100.34497 27160 ft 378 kts 88°
2026-04-28 20:33 45.03031 -100.30847 27168 ft 378 kts 88°
2026-04-28 20:33 45.03240 -100.27137 27160 ft 378 kts 88°
2026-04-28 20:33 45.03448 -100.23426 27165 ft 378 kts 88°
2026-04-28 20:34 45.03655 -100.19716 27159 ft 379 kts 88°
2026-04-28 20:34 45.03861 -100.16007 27161 ft 379 kts 88°
2026-04-28 20:34 45.04066 -100.12292 27165 ft 379 kts 88°
2026-04-28 20:34 45.04269 -100.08580 27158 ft 379 kts 88°
2026-04-28 20:35 45.04471 -100.04879 27169 ft 379 kts 88°
2026-04-28 20:35 45.04671 -100.01168 27165 ft 379 kts 88°
2026-04-28 20:35 45.04872 -99.97451 27158 ft 379 kts 89°
2026-04-28 20:35 45.05070 -99.93736 27164 ft 379 kts 89°
2026-04-28 20:36 45.05267 -99.90019 27172 ft 379 kts 89°
2026-04-28 20:36 45.05464 -99.86301 27163 ft 379 kts 89°
2026-04-28 20:36 45.05657 -99.82617 27169 ft 380 kts 89°
2026-04-28 20:36 45.05851 -99.78891 27163 ft 380 kts 89°
2026-04-28 20:37 45.06043 -99.75188 27166 ft 380 kts 89°
2026-04-28 20:37 45.06235 -99.71459 27169 ft 380 kts 89°
2026-04-28 20:37 45.06426 -99.67729 27164 ft 380 kts 89°
2026-04-28 20:37 45.06613 -99.64055 27167 ft 380 kts 89°
2026-04-28 20:38 45.06801 -99.60334 27159 ft 380 kts 89°
2026-04-28 20:38 45.06990 -99.56557 27167 ft 380 kts 89°
2026-04-28 20:38 45.07173 -99.52874 27166 ft 380 kts 89°
2026-04-28 20:38 45.07357 -99.49154 27169 ft 381 kts 89°
2026-04-28 20:39 45.07541 -99.45416 27168 ft 381 kts 89°
2026-04-28 20:39 45.07724 -99.41675 27165 ft 381 kts 89°
2026-04-28 20:39 45.07906 -99.37930 27165 ft 381 kts 89°
2026-04-28 20:39 45.08086 -99.34187 27168 ft 381 kts 89°
2026-04-28 20:40 45.08265 -99.30451 27172 ft 381 kts 89°
2026-04-28 20:40 45.08443 -99.26707 27168 ft 381 kts 89°
2026-04-28 20:40 45.08620 -99.22960 27160 ft 382 kts 89°
2026-04-28 20:40 45.08795 -99.19215 27174 ft 381 kts 89°
2026-04-28 20:41 45.08969 -99.15471 27174 ft 382 kts 89°
2026-04-28 20:41 45.09142 -99.11720 27172 ft 382 kts 90°
2026-04-28 20:41 45.09314 -99.07975 27176 ft 382 kts 90°
2026-04-28 20:41 45.09485 -99.04226 27170 ft 382 kts 90°
2026-04-28 20:42 45.09655 -99.00470 27170 ft 382 kts 90°
2026-04-28 20:42 45.09823 -98.96719 27172 ft 382 kts 90°
2026-04-28 20:42 45.09989 -98.92988 27171 ft 382 kts 90°
2026-04-28 20:42 45.10155 -98.89241 27171 ft 382 kts 90°
2026-04-28 20:43 45.10319 -98.85491 27171 ft 382 kts 90°
2026-04-28 20:43 45.10483 -98.81746 27175 ft 382 kts 90°
2026-04-28 20:43 45.10645 -98.77968 26827 ft 384 kts 90°
2026-04-28 20:43 45.10806 -98.74199 26408 ft 386 kts 90°
2026-04-28 20:44 45.10968 -98.70360 26030 ft 393 kts 90°
2026-04-28 20:44 45.11131 -98.66509 25661 ft 388 kts 90°
2026-04-28 20:44 45.11291 -98.62732 25302 ft 385 kts 90°
2026-04-28 20:44 45.11448 -98.58949 24944 ft 383 kts 90°
2026-04-28 20:45 45.11603 -98.55192 24591 ft 381 kts 90°
2026-04-28 20:45 45.11756 -98.51453 24246 ft 378 kts 90°
2026-04-28 20:45 45.11906 -98.47745 23904 ft 376 kts 90°
2026-04-28 20:45 45.12054 -98.44052 23524 ft 375 kts 90°
2026-04-28 20:46 45.12199 -98.40427 23251 ft 371 kts 90°
2026-04-28 20:46 45.12342 -98.36800 23186 ft 372 kts 90°
2026-04-28 20:46 45.12486 -98.33129 23168 ft 373 kts 90°
2026-04-28 20:46 45.12628 -98.29462 23167 ft 373 kts 90°
2026-04-28 20:47 45.12769 -98.25801 23169 ft 373 kts 90°
2026-04-28 20:47 45.12910 -98.22133 23167 ft 373 kts 90°
2026-04-28 20:47 45.13049 -98.18464 23171 ft 373 kts 90°
2026-04-28 20:47 45.13187 -98.14801 23168 ft 372 kts 90°
2026-04-28 20:48 45.13323 -98.11133 23172 ft 373 kts 90°
2026-04-28 20:48 45.13459 -98.07466 23161 ft 374 kts 90°
2026-04-28 20:48 45.13594 -98.03777 23168 ft 375 kts 90°
2026-04-28 20:48 45.13728 -98.00093 23167 ft 375 kts 90°
2026-04-28 20:49 45.13860 -97.96409 23166 ft 374 kts 90°
2026-04-28 20:49 45.13991 -97.92731 23177 ft 374 kts 90°
2026-04-28 20:49 45.14120 -97.89094 23166 ft 374 kts 90°
2026-04-28 20:49 45.14250 -97.85360 23162 ft 375 kts 90°
2026-04-28 20:50 45.14378 -97.81678 23175 ft 374 kts 90°
2026-04-28 20:50 45.14505 -97.78004 23162 ft 374 kts 90°
2026-04-28 20:50 45.14628 -97.74369 23164 ft 374 kts 90°
2026-04-28 20:50 45.14754 -97.70636 23171 ft 375 kts 90°
2026-04-28 20:51 45.14875 -97.67003 23149 ft 373 kts 91°
2026-04-28 20:51 45.14997 -97.63331 23162 ft 373 kts 91°
2026-04-28 20:51 45.15117 -97.59663 23166 ft 374 kts 91°
2026-04-28 20:51 45.15197 -97.57173 23160 ft 373 kts 91°
2026-04-28 20:52 45.15353 -97.52323 23163 ft 374 kts 91°
2026-04-28 20:52 45.15470 -97.48645 23159 ft 374 kts 91°
2026-04-28 20:52 45.15586 -97.44973 23161 ft 374 kts 91°
2026-04-28 20:52 45.15700 -97.41295 23165 ft 374 kts 91°
2026-04-28 20:53 45.15925 -97.33943 23155 ft 374 kts 91°
2026-04-28 20:53 45.16036 -97.30264 23162 ft 374 kts 91°
2026-04-28 20:53 45.16146 -97.26586 23155 ft 373 kts 91°
2026-04-28 20:54 45.16254 -97.22927 23162 ft 373 kts 91°
2026-04-28 20:54 45.16361 -97.19253 23149 ft 373 kts 91°
2026-04-28 20:54 45.16467 -97.15579 23149 ft 373 kts 91°
2026-04-28 20:54 45.16572 -97.11901 23150 ft 373 kts 91°
2026-04-28 20:55 45.16675 -97.08231 23147 ft 373 kts 91°
2026-04-28 20:55 45.16778 -97.04550 23148 ft 373 kts 91°
2026-04-28 20:55 45.16880 -97.00877 23142 ft 371 kts 91°
2026-04-28 20:55 45.16980 -96.97243 23150 ft 369 kts 91°
2026-04-28 20:56 45.17076 -96.93629 23153 ft 370 kts 91°
2026-04-28 20:56 45.17173 -96.90000 23147 ft 366 kts 91°
2026-04-28 20:56 45.17267 -96.86403 23151 ft 366 kts 91°
2026-04-28 20:56 45.17360 -96.82799 23152 ft 366 kts 91°
2026-04-28 20:57 45.17452 -96.79197 23148 ft 366 kts 91°
2026-04-28 20:57 45.17543 -96.75597 23148 ft 366 kts 91°
2026-04-28 20:57 45.17634 -96.71995 23148 ft 366 kts 92°
2026-04-28 20:57 45.17722 -96.68395 23149 ft 366 kts 92°
2026-04-28 20:58 45.17810 -96.64811 23148 ft 366 kts 92°
2026-04-28 20:58 45.17895 -96.61253 23145 ft 366 kts 92°
2026-04-28 20:58 45.17981 -96.57653 23145 ft 366 kts 92°
2026-04-28 20:58 45.18065 -96.54054 23130 ft 365 kts 92°
2026-04-28 20:59 45.18148 -96.50458 23140 ft 365 kts 92°
2026-04-28 20:59 45.18230 -96.46862 23141 ft 365 kts 92°
2026-04-28 20:59 45.18311 -96.43265 23138 ft 365 kts 92°
2026-04-28 20:59 45.18390 -96.39686 23138 ft 365 kts 92°
2026-04-28 21:00 45.18443 -96.37258 23140 ft 365 kts 92°
2026-04-28 21:00 45.18546 -96.32488 23141 ft 365 kts 92°
2026-04-28 21:00 45.18597 -96.30096 23141 ft 365 kts 92°
2026-04-28 21:00 45.18673 -96.26496 23141 ft 365 kts 92°
2026-04-28 21:01 45.18747 -96.22897 23138 ft 365 kts 92°
2026-04-28 21:01 45.18821 -96.19292 23130 ft 365 kts 92°
2026-04-28 21:01 45.18893 -96.15699 23128 ft 365 kts 92°
2026-04-28 21:01 45.18964 -96.12094 23130 ft 366 kts 92°
2026-04-28 21:02 45.19034 -96.08507 23130 ft 366 kts 92°
2026-04-28 21:02 45.19102 -96.04908 23129 ft 366 kts 92°
2026-04-28 21:02 45.19170 -96.01305 23129 ft 366 kts 92°
2026-04-28 21:02 45.19237 -95.97694 23130 ft 365 kts 92°
2026-04-28 21:03 45.19302 -95.94096 23129 ft 366 kts 92°
2026-04-28 21:03 45.19367 -95.90493 23130 ft 365 kts 92°
2026-04-28 21:03 45.19430 -95.86895 23130 ft 366 kts 92°
2026-04-28 21:03 45.19491 -95.83307 23131 ft 365 kts 92°
2026-04-28 21:04 45.19552 -95.79701 23136 ft 365 kts 92°
2026-04-28 21:04 45.19612 -95.76097 23126 ft 366 kts 92°
2026-04-28 21:04 45.19671 -95.72496 23137 ft 366 kts 92°
2026-04-28 21:04 45.19728 -95.68893 23139 ft 366 kts 92°
2026-04-28 21:05 45.19784 -95.65331 23142 ft 366 kts 92°
2026-04-28 21:05 45.19840 -95.61720 23145 ft 366 kts 92°
2026-04-28 21:05 45.19894 -95.58117 23141 ft 366 kts 92°
2026-04-28 21:05 45.19946 -95.54526 23130 ft 366 kts 92°
2026-04-28 21:06 45.19998 -95.50922 23126 ft 366 kts 92°
2026-04-28 21:06 45.20049 -95.47312 23126 ft 366 kts 92°
2026-04-28 21:06 45.20099 -95.43706 23123 ft 366 kts 92°
2026-04-28 21:06 45.20147 -95.40101 23119 ft 366 kts 93°
2026-04-28 21:07 45.20194 -95.36496 23113 ft 366 kts 92°
2026-04-28 21:07 45.20241 -95.32886 23111 ft 366 kts 92°
2026-04-28 21:07 45.20286 -95.29279 23108 ft 366 kts 92°
2026-04-28 21:07 45.20329 -95.25675 23107 ft 366 kts 92°
2026-04-28 21:08 45.20372 -95.22065 23108 ft 366 kts 92°
2026-04-28 21:08 45.20414 -95.18454 23102 ft 366 kts 92°
2026-04-28 21:08 45.20455 -95.14846 23101 ft 366 kts 92°
2026-04-28 21:08 45.20494 -95.11235 23102 ft 366 kts 92°
2026-04-28 21:09 45.20532 -95.07631 23100 ft 366 kts 92°
2026-04-28 21:09 45.20569 -95.04016 23103 ft 366 kts 92°
2026-04-28 21:09 45.20605 -95.00410 23097 ft 366 kts 92°
2026-04-28 21:09 45.20640 -94.96809 23105 ft 369 kts 92°
2026-04-28 21:10 45.20674 -94.93175 23108 ft 368 kts 92°
2026-04-28 21:10 45.20707 -94.89539 23111 ft 368 kts 92°
2026-04-28 21:10 45.20738 -94.85919 23109 ft 368 kts 92°
2026-04-28 21:10 45.20769 -94.82286 23109 ft 368 kts 93°
2026-04-28 21:11 45.20798 -94.78655 23110 ft 368 kts 93°
2026-04-28 21:11 45.20826 -94.75030 23108 ft 368 kts 93°
2026-04-28 21:11 45.20853 -94.71451 23107 ft 368 kts 93°
2026-04-28 21:11 45.20879 -94.67827 23095 ft 368 kts 93°
2026-04-28 21:12 45.20904 -94.64150 23090 ft 368 kts 93°
2026-04-28 21:12 45.20927 -94.60569 23086 ft 369 kts 93°
2026-04-28 21:12 45.20949 -94.56911 23089 ft 372 kts 93°
2026-04-28 21:12 45.20971 -94.53254 23085 ft 371 kts 93°
2026-04-28 21:13 45.20991 -94.49604 23085 ft 371 kts 93°
2026-04-28 21:13 45.21010 -94.45937 23088 ft 371 kts 93°
2026-04-28 21:13 45.21028 -94.42293 23089 ft 371 kts 93°
2026-04-28 21:13 45.21045 -94.38635 23092 ft 371 kts 93°
2026-04-28 21:14 45.21061 -94.34976 23094 ft 371 kts 93°
2026-04-28 21:14 45.21075 -94.31314 23090 ft 371 kts 93°
2026-04-28 21:14 45.21088 -94.27662 23097 ft 371 kts 93°
2026-04-28 21:14 45.21100 -94.24000 23094 ft 371 kts 93°
2026-04-28 21:15 45.21111 -94.20336 23088 ft 372 kts 93°
2026-04-28 21:15 45.21121 -94.16655 23089 ft 373 kts 93°
2026-04-28 21:15 45.21130 -94.12992 23087 ft 373 kts 93°
2026-04-28 21:15 45.21137 -94.09366 23085 ft 373 kts 93°
2026-04-28 21:16 45.21143 -94.05642 23079 ft 373 kts 93°
2026-04-28 21:16 45.21148 -94.02014 23085 ft 373 kts 93°
2026-04-28 21:16 45.21152 -93.98340 23087 ft 373 kts 93°
2026-04-28 21:16 45.21155 -93.94664 23085 ft 373 kts 93°
2026-04-28 21:17 45.21156 -93.90987 23083 ft 373 kts 93°
2026-04-28 21:17 45.21157 -93.87309 23067 ft 373 kts 93°
2026-04-28 21:17 45.21156 -93.83640 23056 ft 373 kts 93°
2026-04-28 21:17 45.21154 -93.79963 23064 ft 372 kts 93°
2026-04-28 21:18 45.21151 -93.76294 23057 ft 372 kts 93°
2026-04-28 21:18 45.21146 -93.72626 23073 ft 373 kts 93°
2026-04-28 21:18 45.21141 -93.68949 23073 ft 373 kts 93°
2026-04-28 21:18 45.21134 -93.65278 23071 ft 372 kts 93°
2026-04-28 21:19 45.21126 -93.61604 23069 ft 372 kts 94°
2026-04-28 21:19 45.21117 -93.57944 23067 ft 372 kts 94°
2026-04-28 21:19 45.21107 -93.54265 23066 ft 372 kts 94°
2026-04-28 21:19 45.21095 -93.50593 23061 ft 372 kts 94°
2026-04-28 21:20 45.21083 -93.46921 23060 ft 372 kts 94°
2026-04-28 21:20 45.21069 -93.43251 23059 ft 372 kts 94°
2026-04-28 21:20 45.21054 -93.39576 23059 ft 372 kts 94°
2026-04-28 21:20 45.21038 -93.35906 23055 ft 372 kts 94°
2026-04-28 21:21 45.21020 -93.32233 23058 ft 372 kts 94°
2026-04-28 21:21 45.21002 -93.28590 23055 ft 372 kts 94°
2026-04-28 21:21 45.20982 -93.24917 23057 ft 372 kts 94°
2026-04-28 21:21 45.20962 -93.21252 23053 ft 372 kts 94°
2026-04-28 21:22 45.20939 -93.17572 23060 ft 372 kts 94°
2026-04-28 21:22 45.20916 -93.13902 23058 ft 372 kts 94°
2026-04-28 21:22 45.20892 -93.10231 23056 ft 372 kts 94°
2026-04-28 21:22 45.20875 -93.07800 23047 ft 372 kts 93°
2026-04-28 21:23 45.20840 -93.02906 23057 ft 371 kts 94°
2026-04-28 21:23 45.20812 -92.99245 23056 ft 371 kts 94°
2026-04-28 21:23 45.20783 -92.95583 23056 ft 371 kts 94°
2026-04-28 21:23 45.20753 -92.91973 23054 ft 371 kts 94°
2026-04-28 21:24 45.20722 -92.88308 23056 ft 371 kts 94°
2026-04-28 21:24 45.20689 -92.84652 23057 ft 371 kts 94°
2026-04-28 21:24 45.20655 -92.80992 23062 ft 371 kts 94°
2026-04-28 21:24 45.20620 -92.77330 23061 ft 371 kts 94°
2026-04-28 21:25 45.20585 -92.73688 23067 ft 371 kts 94°
2026-04-28 21:25 45.20547 -92.70027 23063 ft 371 kts 94°
2026-04-28 21:25 45.20509 -92.66365 23035 ft 372 kts 94°
2026-04-28 21:25 45.20469 -92.62701 23038 ft 372 kts 94°
2026-04-28 21:26 45.20429 -92.59033 23039 ft 372 kts 94°
2026-04-28 21:26 45.20387 -92.55368 23037 ft 372 kts 94°
2026-04-28 21:26 45.20344 -92.51695 23037 ft 372 kts 94°
2026-04-28 21:26 45.20299 -92.48027 23036 ft 372 kts 94°
2026-04-28 21:27 45.20254 -92.44376 23040 ft 372 kts 94°
2026-04-28 21:27 45.20207 -92.40707 23037 ft 372 kts 94°
2026-04-28 21:27 45.20159 -92.37039 23038 ft 372 kts 94°
2026-04-28 21:27 45.20110 -92.33376 23038 ft 372 kts 94°
2026-04-28 21:28 45.20060 -92.29703 23025 ft 372 kts 94°
2026-04-28 21:28 45.20009 -92.26042 23036 ft 372 kts 94°
2026-04-28 21:28 45.19956 -92.22374 23038 ft 372 kts 94°
2026-04-28 21:28 45.19903 -92.18723 23036 ft 372 kts 94°
2026-04-28 21:29 45.19848 -92.15050 23035 ft 372 kts 94°
2026-04-28 21:29 45.19792 -92.11387 23034 ft 372 kts 94°
2026-04-28 21:29 45.19734 -92.07717 23028 ft 372 kts 94°
2026-04-28 21:29 45.19677 -92.04097 23028 ft 372 kts 94°
2026-04-28 21:30 45.19616 -92.00381 23031 ft 372 kts 94°
2026-04-28 21:30 45.19555 -91.96713 23030 ft 372 kts 94°
2026-04-28 21:30 45.19494 -91.93095 23029 ft 372 kts 94°
2026-04-28 21:30 45.19432 -91.89451 23028 ft 371 kts 94°
2026-04-28 21:31 45.19368 -91.85788 23028 ft 371 kts 94°
2026-04-28 21:31 45.19302 -91.82128 23025 ft 372 kts 94°
2026-04-28 21:31 45.19235 -91.78466 23026 ft 372 kts 94°
2026-04-28 21:31 45.19168 -91.74802 23027 ft 371 kts 94°
2026-04-28 21:32 45.19099 -91.71146 23024 ft 371 kts 94°
2026-04-28 21:32 45.19029 -91.67492 23026 ft 371 kts 94°
2026-04-28 21:32 45.18957 -91.63837 23026 ft 371 kts 94°
2026-04-28 21:32 45.18885 -91.60185 23024 ft 371 kts 94°
2026-04-28 21:33 45.18811 -91.56520 23024 ft 372 kts 94°
2026-04-28 21:33 45.18737 -91.52866 23006 ft 372 kts 94°
2026-04-28 21:33 45.18660 -91.49190 23019 ft 374 kts 94°
2026-04-28 21:33 45.18582 -91.45504 23017 ft 374 kts 94°
2026-04-28 21:34 45.18504 -91.41820 23015 ft 373 kts 94°
2026-04-28 21:34 45.18424 -91.38149 23015 ft 373 kts 94°
2026-04-28 21:34 45.18343 -91.34476 23001 ft 374 kts 94°
2026-04-28 21:34 45.18261 -91.30791 23014 ft 374 kts 94°
2026-04-28 21:35 45.18177 -91.27109 23017 ft 374 kts 94°
2026-04-28 21:35 45.18093 -91.23427 23015 ft 374 kts 94°
2026-04-28 21:35 45.18011 -91.19743 23007 ft 374 kts 92°
2026-04-28 21:35 45.18354 -91.16088 23014 ft 376 kts 79°
2026-04-28 21:36 45.18742 -91.12423 23018 ft 377 kts 87°
2026-04-28 21:36 45.18839 -91.08767 23010 ft 376 kts 92°
2026-04-28 21:36 45.18795 -91.05074 23007 ft 375 kts 94°
2026-04-28 21:36 45.18718 -91.01370 22994 ft 375 kts 94°
2026-04-28 21:37 45.18656 -90.97681 22997 ft 374 kts 94°
2026-04-28 21:37 45.18565 -90.93984 23010 ft 375 kts 94°
2026-04-28 21:37 45.18484 -90.90293 23006 ft 375 kts 94°
2026-04-28 21:37 45.18392 -90.86596 23004 ft 374 kts 94°
2026-04-28 21:38 45.18300 -90.82911 23005 ft 374 kts 94°
2026-04-28 21:38 45.18207 -90.79223 23003 ft 375 kts 95°
2026-04-28 21:38 45.18113 -90.75546 22987 ft 374 kts 94°
2026-04-28 21:38 45.18003 -90.71865 22993 ft 374 kts 94°
2026-04-28 21:39 45.17906 -90.68179 22991 ft 374 kts 94°
2026-04-28 21:39 45.17798 -90.64493 22989 ft 374 kts 94°
2026-04-28 21:39 45.17699 -90.60806 22985 ft 374 kts 94°
2026-04-28 21:39 45.17593 -90.57120 22982 ft 374 kts 94°
2026-04-28 21:40 45.17489 -90.53488 22982 ft 374 kts 94°
2026-04-28 21:40 45.17387 -90.49813 22978 ft 374 kts 94°
2026-04-28 21:40 45.17277 -90.46127 22977 ft 374 kts 94°
2026-04-28 21:40 45.17171 -90.42445 22974 ft 374 kts 95°
2026-04-28 21:41 45.17062 -90.38755 22975 ft 374 kts 94°
2026-04-28 21:41 45.16944 -90.35066 22976 ft 375 kts 94°
2026-04-28 21:41 45.16835 -90.31375 22972 ft 375 kts 94°
2026-04-28 21:41 45.16716 -90.27695 22971 ft 375 kts 94°
2026-04-28 21:42 45.16607 -90.23996 22971 ft 375 kts 94°
2026-04-28 21:42 45.16488 -90.20321 22972 ft 375 kts 94°
2026-04-28 21:42 45.16371 -90.16633 22976 ft 374 kts 94°
2026-04-28 21:42 45.16256 -90.12949 22975 ft 375 kts 94°
2026-04-28 21:43 45.16136 -90.09262 22975 ft 374 kts 94°
2026-04-28 21:43 45.16016 -90.05578 22978 ft 374 kts 94°
2026-04-28 21:43 45.15899 -90.01888 22978 ft 374 kts 95°
2026-04-28 21:43 45.15778 -89.98201 22974 ft 375 kts 94°
2026-04-28 21:44 45.15652 -89.94520 22984 ft 375 kts 94°
2026-04-28 21:44 45.15527 -89.90832 22986 ft 375 kts 94°
2026-04-28 21:44 45.15403 -89.87140 22987 ft 375 kts 95°
2026-04-28 21:44 45.15276 -89.83450 22984 ft 375 kts 94°
2026-04-28 21:45 45.15147 -89.79757 22990 ft 375 kts 95°
2026-04-28 21:45 45.15018 -89.76067 22987 ft 375 kts 95°
2026-04-28 21:45 45.14891 -89.72426 22987 ft 375 kts 95°
2026-04-28 21:45 45.14759 -89.68737 22984 ft 375 kts 94°
2026-04-28 21:46 45.14629 -89.65071 22988 ft 376 kts 95°
2026-04-28 21:46 45.14498 -89.61371 22991 ft 375 kts 95°
2026-04-28 21:46 45.14366 -89.57680 22987 ft 375 kts 95°
2026-04-28 21:46 45.14231 -89.53986 22982 ft 375 kts 95°
2026-04-28 21:47 45.14093 -89.50296 22973 ft 375 kts 95°
2026-04-28 21:47 45.13953 -89.46598 22973 ft 375 kts 95°
2026-04-28 21:47 45.13812 -89.42913 22972 ft 375 kts 95°
2026-04-28 21:47 45.13670 -89.39236 22967 ft 375 kts 95°
2026-04-28 21:48 45.13526 -89.35547 22964 ft 375 kts 95°
2026-04-28 21:48 45.13381 -89.31855 22960 ft 375 kts 95°
2026-04-28 21:48 45.13284 -89.29411 22958 ft 375 kts 95°
2026-04-28 21:48 45.13137 -89.25725 22955 ft 375 kts 95°
2026-04-28 21:49 45.12989 -89.22034 22948 ft 375 kts 95°
2026-04-28 21:49 45.12840 -89.18363 22952 ft 373 kts 95°
2026-04-28 21:49 45.12690 -89.14693 22955 ft 373 kts 95°
2026-04-28 21:49 45.12540 -89.11035 22954 ft 373 kts 95°
2026-04-28 21:50 45.12387 -89.07353 22952 ft 373 kts 95°
2026-04-28 21:50 45.12234 -89.03691 22974 ft 373 kts 95°
2026-04-28 21:50 45.12079 -89.00014 22975 ft 373 kts 95°
2026-04-28 21:50 45.11923 -88.96346 22975 ft 373 kts 95°
2026-04-28 21:51 45.11766 -88.92676 22975 ft 373 kts 95°
2026-04-28 21:51 45.11608 -88.89010 22973 ft 373 kts 95°
2026-04-28 21:51 45.11449 -88.85337 22973 ft 373 kts 95°
2026-04-28 21:51 45.11289 -88.81692 22972 ft 372 kts 95°
2026-04-28 21:52 45.11129 -88.78050 22975 ft 372 kts 95°
2026-04-28 21:52 45.10968 -88.74438 22971 ft 372 kts 95°
2026-04-28 21:52 45.10805 -88.70786 22968 ft 372 kts 95°
2026-04-28 21:52 45.10641 -88.67136 22968 ft 372 kts 95°
2026-04-28 21:53 45.10475 -88.63481 22973 ft 372 kts 95°
2026-04-28 21:53 45.10308 -88.59833 22961 ft 372 kts 95°
2026-04-28 21:53 45.10140 -88.56181 22960 ft 372 kts 95°
2026-04-28 21:53 45.09971 -88.52525 22960 ft 372 kts 95°
2026-04-28 21:54 45.09801 -88.48884 22959 ft 372 kts 95°
2026-04-28 21:54 45.09630 -88.45240 22951 ft 371 kts 96°
2026-04-28 21:54 45.09459 -88.41610 22958 ft 368 kts 96°
2026-04-28 21:54 45.09286 -88.37988 22959 ft 369 kts 96°
2026-04-28 21:55 45.09112 -88.34365 22954 ft 369 kts 96°
2026-04-28 21:55 45.08938 -88.30757 22949 ft 368 kts 96°
2026-04-28 21:55 45.08763 -88.27155 22950 ft 369 kts 96°
2026-04-28 21:55 45.08586 -88.23535 22948 ft 368 kts 96°
2026-04-28 21:56 45.08409 -88.19924 22952 ft 368 kts 96°
2026-04-28 21:56 45.08230 -88.16310 22949 ft 368 kts 96°
2026-04-28 21:56 45.08049 -88.12690 22947 ft 369 kts 96°
2026-04-28 21:56 45.07868 -88.09076 22946 ft 368 kts 96°
2026-04-28 21:57 45.07687 -88.05466 22940 ft 367 kts 97°
2026-04-28 21:57 45.07504 -88.01863 22945 ft 367 kts 97°
2026-04-28 21:57 45.07319 -87.98268 22945 ft 367 kts 97°
2026-04-28 21:57 45.07134 -87.94662 22945 ft 367 kts 97°
2026-04-28 21:58 45.06947 -87.91057 22944 ft 367 kts 97°
2026-04-28 21:58 45.06760 -87.87455 22944 ft 367 kts 97°
2026-04-28 21:58 45.06573 -87.83895 22945 ft 367 kts 97°
2026-04-28 21:58 45.06381 -87.80248 22945 ft 367 kts 97°
2026-04-28 21:59 45.06189 -87.76643 22945 ft 367 kts 97°
2026-04-28 21:59 45.05998 -87.73047 22944 ft 367 kts 97°
2026-04-28 21:59 45.05807 -87.69494 22937 ft 367 kts 97°
2026-04-28 22:00 45.05416 -87.62276 22942 ft 368 kts 97°
2026-04-28 22:00 45.05220 -87.58669 22946 ft 368 kts 97°
2026-04-28 22:00 45.05021 -87.55054 22945 ft 368 kts 97°
2026-04-28 22:00 45.04821 -87.51446 22947 ft 368 kts 97°
2026-04-28 22:01 45.04621 -87.47843 22950 ft 368 kts 97°
2026-04-28 22:01 45.04420 -87.44246 22954 ft 368 kts 97°
2026-04-28 22:01 45.04217 -87.40636 22955 ft 368 kts 97°
2026-04-28 22:01 45.04013 -87.37033 22954 ft 368 kts 97°
2026-04-28 22:02 45.03808 -87.33429 22954 ft 368 kts 97°
2026-04-28 22:02 45.03602 -87.29821 22950 ft 369 kts 98°
2026-04-28 22:02 45.03393 -87.26189 22955 ft 370 kts 98°
2026-04-28 22:02 45.03184 -87.22570 22952 ft 370 kts 98°
2026-04-28 22:03 45.02973 -87.18951 22954 ft 370 kts 98°
2026-04-28 22:03 45.02764 -87.15355 23077 ft 368 kts 98°
2026-04-28 22:03 45.02549 -87.11722 22533 ft 366 kts 98°
2026-04-28 22:03 45.02338 -87.08127 21906 ft 367 kts 98°
2026-04-28 22:04 45.02090 -87.04637 21304 ft 356 kts 103°
2026-04-28 22:04 45.01299 -87.01375 20554 ft 350 kts 116°
2026-04-28 22:04 45.00537 -86.98110 20038 ft 350 kts 109°
2026-04-28 22:04 45.00017 -86.94743 19524 ft 350 kts 103°
2026-04-28 22:05 44.99652 -86.91349 19023 ft 350 kts 100°
2026-04-28 22:05 44.99353 -86.87958 18521 ft 347 kts 99°
2026-04-28 22:05 44.99077 -86.84581 17999 ft 345 kts 98°
2026-04-28 22:05 44.98810 -86.81226 17429 ft 342 kts 98°
2026-04-28 22:06 44.98546 -86.77904 16878 ft 339 kts 98°
2026-04-28 22:06 44.98285 -86.74613 16335 ft 336 kts 98°
2026-04-28 22:06 44.98026 -86.71350 15801 ft 333 kts 98°
2026-04-28 22:06 44.97768 -86.68105 15276 ft 331 kts 98°
2026-04-28 22:07 44.97510 -86.64888 14763 ft 328 kts 98°
2026-04-28 22:07 44.97255 -86.61703 14260 ft 326 kts 97°
2026-04-28 22:07 44.97000 -86.58537 13759 ft 324 kts 97°
2026-04-28 22:07 44.96747 -86.55398 13194 ft 320 kts 97°
2026-04-28 22:08 44.96495 -86.52291 12647 ft 317 kts 97°
2026-04-28 22:08 44.96245 -86.49215 12105 ft 313 kts 97°
2026-04-28 22:08 44.95997 -86.46187 11576 ft 309 kts 97°
2026-04-28 22:08 44.95751 -86.43191 11170 ft 305 kts 97°
2026-04-28 22:09 44.95507 -86.40211 11063 ft 306 kts 97°
2026-04-28 22:09 44.95260 -86.37224 11025 ft 306 kts 97°
2026-04-28 22:09 44.95015 -86.34256 11012 ft 306 kts 97°
2026-04-28 22:09 44.94770 -86.31310 11004 ft 306 kts 97°
2026-04-28 22:10 44.94522 -86.28326 11004 ft 306 kts 97°
2026-04-28 22:10 44.94273 -86.25341 11006 ft 306 kts 97°
2026-04-28 22:10 44.94023 -86.22360 11008 ft 306 kts 97°
2026-04-28 22:10 44.93772 -86.19380 11009 ft 306 kts 97°
2026-04-28 22:11 44.93520 -86.16397 11004 ft 308 kts 97°
2026-04-28 22:11 44.93266 -86.13400 11005 ft 307 kts 97°
2026-04-28 22:11 44.93012 -86.10407 11004 ft 307 kts 97°
2026-04-28 22:11 44.92762 -86.07477 10995 ft 289 kts 97°
2026-04-28 22:12 44.92526 -86.04713 11000 ft 283 kts 97°
2026-04-28 22:12 44.92287 -86.01951 11002 ft 283 kts 97°
2026-04-28 22:12 44.92049 -85.99201 11004 ft 283 kts 97°
2026-04-28 22:12 44.91809 -85.96440 11009 ft 283 kts 97°
2026-04-28 22:13 44.91571 -85.93686 11006 ft 283 kts 97°
2026-04-28 22:13 44.91329 -85.90935 11001 ft 283 kts 98°
2026-04-28 22:13 44.90970 -85.88213 11000 ft 282 kts 104°
2026-04-28 22:13 44.90520 -85.85511 10992 ft 282 kts 105°
2026-04-28 22:14 44.90066 -85.82814 11004 ft 283 kts 104°
2026-04-28 22:14 44.89622 -85.80113 10997 ft 282 kts 104°
2026-04-28 22:14 44.89194 -85.77465 11014 ft 283 kts 104°
2026-04-28 22:14 44.88760 -85.74758 10999 ft 283 kts 104°
2026-04-28 22:15 44.88328 -85.72053 10998 ft 283 kts 104°
2026-04-28 22:15 44.87895 -85.69347 11002 ft 283 kts 104°
2026-04-28 22:15 44.87462 -85.66646 10990 ft 283 kts 104°
2026-04-28 22:15 44.87025 -85.63931 10461 ft 283 kts 104°
2026-04-28 22:16 44.86591 -85.61244 9841 ft 280 kts 104°
2026-04-28 22:16 44.86162 -85.58588 9183 ft 275 kts 103°
2026-04-28 22:16 44.85738 -85.55974 8535 ft 271 kts 103°
2026-04-28 22:16 44.85321 -85.53403 7896 ft 268 kts 103°
2026-04-28 22:17 44.84909 -85.50872 7273 ft 264 kts 103°
2026-04-28 22:17 44.84502 -85.48372 6661 ft 260 kts 103°
2026-04-28 22:17 44.84098 -85.45901 6056 ft 257 kts 103°
2026-04-28 22:17 44.83697 -85.43452 5322 ft 258 kts 102°
2026-04-28 22:18 44.83197 -85.41043 4636 ft 256 kts 114°
2026-04-28 22:18 44.82318 -85.38879 3860 ft 254 kts 129°
2026-04-28 22:18 44.81219 -85.36963 3239 ft 246 kts 134°
2026-04-28 22:18 44.80169 -85.35201 3066 ft 223 kts 133°
2026-04-28 22:19 44.79239 -85.33597 2985 ft 200 kts 133°
2026-04-28 22:19 44.78374 -85.32106 2991 ft 200 kts 133°
2026-04-28 22:19 44.77404 -85.30698 3010 ft 199 kts 150°
2026-04-28 22:19 44.76167 -85.30101 2997 ft 185 kts 183°
2026-04-28 22:20 44.74879 -85.30161 3012 ft 187 kts 192°
2026-04-28 22:20 44.73697 -85.30675 3001 ft 176 kts 220°
2026-04-28 22:20 44.73026 -85.32006 3000 ft 169 kts 258°
2026-04-28 22:20 44.72970 -85.33641 3002 ft 166 kts 274°
2026-04-28 22:21 44.73065 -85.35143 2997 ft 148 kts 275°
2026-04-28 22:21 44.73163 -85.36564 3011 ft 146 kts 275°
2026-04-28 22:21 44.73248 -85.37893 2996 ft 128 kts 275°
2026-04-28 22:21 44.73320 -85.39131 2996 ft 126 kts 274°
2026-04-28 22:22 44.73386 -85.40362 3004 ft 127 kts 275°
2026-04-28 22:22 44.73435 -85.41554 2906 ft 115 kts 273°
2026-04-28 22:22 44.73469 -85.42683 3236 ft 121 kts 273°
2026-04-28 22:22 44.73520 -85.43838 2834 ft 117 kts 272°
2026-04-28 22:23 44.73567 -85.44954 2574 ft 116 kts 272°
2026-04-28 22:23 44.73623 -85.46091 2337 ft 116 kts 272°
2026-04-28 22:23 44.73655 -85.47212 2427 ft 114 kts 270°
2026-04-28 22:23 44.73638 -85.48366 2386 ft 118 kts 266°
2026-04-28 22:24 44.73573 -85.49497 2156 ft 114 kts 266°
2026-04-28 22:24 44.73633 -85.50605 1805 ft 117 kts 279°
2026-04-28 22:24 44.73766 -85.51742 1469 ft 116 kts 275°
2026-04-28 22:24 44.73842 -85.52884 1347 ft 121 kts 273°
2026-04-28 22:25 44.73905 -85.54036 1075 ft 115 kts 271°
2026-04-28 22:25 44.73948 -85.55142 918 ft 117 kts 273°
2026-04-28 22:25 44.73992 -85.56307 677 ft 119 kts 272°
2026-04-28 22:25 44.74034 -85.57351 629 ft 52 kts 273°
2026-04-28 22:26 44.74041 -85.57577 636 ft 19 kts 277°
2026-04-28 22:26 44.74061 -85.57751 635 ft 15 kts 301°
2026-04-28 22:26 44.74132 -85.57780 632 ft 10 kts
2026-04-28 22:26 44.74193 -85.57774 631 ft 10 kts
2026-04-28 22:27 44.74273 -85.57775 630 ft 12 kts 352°
2026-04-28 22:27 44.74344 -85.57803 633 ft 9 kts 341°
2026-04-28 22:27 44.74398 -85.57827 626 ft 8 kts 346°
2026-04-28 22:27 44.74447 -85.57845 627 ft 7 kts 347°
2026-04-28 22:28 44.74482 -85.57859 632 ft 5 kts 338°
2026-04-28 22:28 44.74495 -85.57874 624 ft 0 kts 270°
2026-04-28 22:28 44.74493 -85.57899 622 ft 12 kts 260°
2026-04-28 22:28 44.74487 -85.57991 622 ft 8 kts 270°
2026-04-28 22:29 44.74490 -85.58045 622 ft 4 kts 290°
2026-04-28 22:29 44.74509 -85.58059 627 ft 5 kts 357°
2026-04-28 22:29 44.74532 -85.58025 628 ft 1 kts 91°
2026-04-28 22:29 44.74534 -85.57997 622 ft 1 kts 90°
2026-04-28 22:30 44.74533 -85.57973 622 ft 1 kts 90°